Observation data for Crowell on 09/09/2017      Previous  Date  Next       Current Mesonet Observations  Soil Data  Daily Summary Page  Observations in Plain Language
KCR1 090500Z 14007KT 19/11 A3016 RMK A01 T01890110  RH  060%=      5-min Rain = 0
KCR1 090501Z 14006KT 19/11 A3016 RMK A01 T01890110  RH  060%=      5-min Rain = 0
KCR1 090502Z 14007KT 19/11 A3016 RMK A01 T01890111  RH  060%=      5-min Rain = 0
KCR1 090503Z 14007KT 19/11 A3016 RMK A01 T01890111  RH  060%=      5-min Rain = 0
KCR1 090504Z 14007KT 19/11 A3016 RMK A01 T01890111  RH  060%=      5-min Rain = 0
KCR1 090505Z 14007KT 19/11 A3016 RMK A01 T01890111  RH  060%=      5-min Rain = 0
KCR1 090506Z 14007KT 19/11 A3016 RMK A01 T01890111  RH  061%=      5-min Rain = 0
KCR1 090507Z 14006KT 19/11 A3016 RMK A01 T01880111  RH  061%=      5-min Rain = 0
KCR1 090508Z 14007KT 19/11 A3016 RMK A01 T01880111  RH  061%=      5-min Rain = 0
KCR1 090509Z 14007KT 19/11 A3016 RMK A01 T01880111  RH  061%=      5-min Rain = 0
KCR1 090510Z 14007KT 19/11 A3016 RMK A01 T01880111  RH  061%=      5-min Rain = 0
KCR1 090511Z 14007KT 19/11 A3016 RMK A01 T01880111  RH  061%=      5-min Rain = 0
KCR1 090512Z 14006KT 19/11 A3016 RMK A01 T01890111  RH  060%=      5-min Rain = 0
KCR1 090513Z 14007KT 19/11 A3016 RMK A01 T01890111  RH  060%=      5-min Rain = 0
KCR1 090514Z 14006KT 19/11 A3016 RMK A01 T01900111  RH  060%=      5-min Rain = 0
KCR1 090515Z 15006KT 19/11 A3015 RMK A01 T01900111  RH  060%=      5-min Rain = 0
KCR1 090516Z 15007KT 19/11 A3015 RMK A01 T01900111  RH  060%=      5-min Rain = 0
KCR1 090517Z 15006KT 19/11 A3016 RMK A01 T01900111  RH  060%=      5-min Rain = 0
KCR1 090518Z 15006KT 19/11 A3016 RMK A01 T01900111  RH  060%=      5-min Rain = 0
KCR1 090519Z 14006KT 19/11 A3016 RMK A01 T01890111  RH  060%=      5-min Rain = 0
KCR1 090520Z 15006KT 19/11 A3016 RMK A01 T01900111  RH  060%=      5-min Rain = 0
KCR1 090521Z 14007KT 19/11 A3016 RMK A01 T01890110  RH  060%=      5-min Rain = 0
KCR1 090522Z 14006KT 19/11 A3016 RMK A01 T01890110  RH  060%=      5-min Rain = 0
KCR1 090523Z 15007KT 19/11 A3016 RMK A01 T01890110  RH  060%=      5-min Rain = 0
KCR1 090524Z 14006KT 19/11 A3016 RMK A01 T01890109  RH  060%=      5-min Rain = 0
KCR1 090525Z 14007KT 19/11 A3016 RMK A01 T01890110  RH  060%=      5-min Rain = 0
KCR1 090526Z 14007KT 19/11 A3016 RMK A01 T01890109  RH  060%=      5-min Rain = 0
KCR1 090527Z 15007KT 19/11 A3016 RMK A01 T01890109  RH  060%=      5-min Rain = 0
KCR1 090528Z 14007KT 19/11 A3016 RMK A01 T01880109  RH  060%=      5-min Rain = 0
KCR1 090529Z 15006KT 19/11 A3016 RMK A01 T01880109  RH  060%=      5-min Rain = 0
KCR1 090530Z 15006KT 19/11 A3016 RMK A01 T01870109  RH  060%=      5-min Rain = 0
KCR1 090531Z 15006KT 19/11 A3016 RMK A01 T01870108  RH  060%=      5-min Rain = 0
KCR1 090532Z 15006KT 19/11 A3016 RMK A01 T01860109  RH  060%=      5-min Rain = 0
KCR1 090533Z 15006KT 19/11 A3016 RMK A01 T01860109  RH  061%=      5-min Rain = 0
KCR1 090534Z 15006KT 19/11 A3016 RMK A01 T01850108  RH  061%=      5-min Rain = 0
KCR1 090535Z 14006KT 19/11 A3016 RMK A01 T01850109  RH  061%=      5-min Rain = 0
KCR1 090536Z 15006KT 19/11 A3016 RMK A01 T01850108  RH  061%=      5-min Rain = 0
KCR1 090537Z 15006KT 18/11 A3016 RMK A01 T01840108  RH  061%=      5-min Rain = 0
KCR1 090538Z 15006KT 18/11 A3016 RMK A01 T01840108  RH  061%=      5-min Rain = 0
KCR1 090539Z 15006KT 18/11 A3016 RMK A01 T01830108  RH  061%=      5-min Rain = 0
KCR1 090540Z 15006KT 18/11 A3016 RMK A01 T01830108  RH  062%=      5-min Rain = 0
KCR1 090541Z 15006KT 18/11 A3016 RMK A01 T01830108  RH  062%=      5-min Rain = 0
KCR1 090542Z 15006KT 18/11 A3016 RMK A01 T01820108  RH  062%=      5-min Rain = 0
KCR1 090543Z 15006KT 18/11 A3016 RMK A01 T01810108  RH  062%=      5-min Rain = 0
KCR1 090544Z 15006KT 18/11 A3016 RMK A01 T01800108  RH  062%=      5-min Rain = 0
KCR1 090545Z 15006KT 18/11 A3016 RMK A01 T01800108  RH  063%=      5-min Rain = 0
KCR1 090546Z 15006KT 18/11 A3016 RMK A01 T01790108  RH  063%=      5-min Rain = 0
KCR1 090547Z 15006KT 18/11 A3016 RMK A01 T01780108  RH  063%=      5-min Rain = 0
KCR1 090548Z 15006KT 18/11 A3016 RMK A01 T01780108  RH  064%=      5-min Rain = 0
KCR1 090549Z 15006KT 18/11 A3016 RMK A01 T01780108  RH  064%=      5-min Rain = 0
KCR1 090550Z 15005KT 18/11 A3016 RMK A01 T01770108  RH  064%=      5-min Rain = 0
KCR1 090551Z 15005KT 18/11 A3016 RMK A01 T01770108  RH  064%=      5-min Rain = 0
KCR1 090552Z 15006KT 18/11 A3016 RMK A01 T01770108  RH  064%=      5-min Rain = 0
KCR1 090553Z 15005KT 18/11 A3016 RMK A01 T01760108  RH  064%=      5-min Rain = 0
KCR1 090554Z 15005KT 18/11 A3016 RMK A01 T01760108  RH  064%=      5-min Rain = 0
KCR1 090555Z 15005KT 18/11 A3016 RMK A01 T01760108  RH  064%=      5-min Rain = 0
KCR1 090556Z 15005KT 18/11 A3016 RMK A01 T01750108  RH  065%=      5-min Rain = 0
KCR1 090557Z 16005KT 18/11 A3016 RMK A01 T01750108  RH  065%=      5-min Rain = 0
KCR1 090558Z 16005KT 18/11 A3016 RMK A01 T01760108  RH  065%=      5-min Rain = 0
KCR1 090559Z 16005KT 18/11 A3016 RMK A01 T01750108  RH  065%=      5-min Rain = 0
KCR1 090600Z 16005KT 18/11 A3016 RMK A01 T01750108  RH  065%=      5-min Rain = 0
KCR1 090601Z 15005KT 18/11 A3016 RMK A01 T01750108  RH  065%=      5-min Rain = 0
KCR1 090602Z 15005KT 18/11 A3016 RMK A01 T01750108  RH  065%=      5-min Rain = 0
KCR1 090603Z 15005KT 17/11 A3016 RMK A01 T01740108  RH  065%=      5-min Rain = 0
KCR1 090604Z 15005KT 17/11 A3017 RMK A01 T01740108  RH  065%=      5-min Rain = 0
KCR1 090605Z 15005KT 17/11 A3017 RMK A01 T01740108  RH  065%=      5-min Rain = 0
KCR1 090606Z 15005KT 17/11 A3017 RMK A01 T01730108  RH  065%=      5-min Rain = 0
KCR1 090607Z 14005KT 17/11 A3017 RMK A01 T01740108  RH  065%=      5-min Rain = 0
KCR1 090608Z 14005KT 17/11 A3017 RMK A01 T01730108  RH  065%=      5-min Rain = 0
KCR1 090609Z 14005KT 17/11 A3017 RMK A01 T01730108  RH  065%=      5-min Rain = 0
KCR1 090610Z 14005KT 17/11 A3016 RMK A01 T01730108  RH  065%=      5-min Rain = 0
KCR1 090611Z 14005KT 17/11 A3016 RMK A01 T01730107  RH  065%=      5-min Rain = 0
KCR1 090612Z 14005KT 17/11 A3016 RMK A01 T01730107  RH  065%=      5-min Rain = 0
KCR1 090613Z 14005KT 17/11 A3016 RMK A01 T01730108  RH  065%=      5-min Rain = 0
KCR1 090614Z 14005KT 17/11 A3016 RMK A01 T01730107  RH  065%=      5-min Rain = 0
KCR1 090615Z 14005KT 17/11 A3017 RMK A01 T01730107  RH  065%=      5-min Rain = 0
KCR1 090616Z 14005KT 17/11 A3017 RMK A01 T01730108  RH  065%=      5-min Rain = 0
KCR1 090617Z 14005KT 17/11 A3017 RMK A01 T01730108  RH  065%=      5-min Rain = 0
KCR1 090618Z 14005KT 17/11 A3017 RMK A01 T01730107  RH  065%=      5-min Rain = 0
KCR1 090619Z 14005KT 17/11 A3017 RMK A01 T01720107  RH  066%=      5-min Rain = 0
KCR1 090620Z 13005KT 17/11 A3017 RMK A01 T01720107  RH  066%=      5-min Rain = 0
KCR1 090621Z 13005KT 17/11 A3017 RMK A01 T01710107  RH  066%=      5-min Rain = 0
KCR1 090622Z 13005KT 17/11 A3017 RMK A01 T01710107  RH  066%=      5-min Rain = 0
KCR1 090623Z 13005KT 17/11 A3017 RMK A01 T01710107  RH  066%=      5-min Rain = 0
KCR1 090624Z 13005KT 17/11 A3016 RMK A01 T01710108  RH  066%=      5-min Rain = 0
KCR1 090625Z 13005KT 17/11 A3016 RMK A01 T01710108  RH  066%=      5-min Rain = 0
KCR1 090626Z 13005KT 17/11 A3016 RMK A01 T01700107  RH  066%=      5-min Rain = 0
KCR1 090627Z 13005KT 17/11 A3016 RMK A01 T01700108  RH  066%=      5-min Rain = 0
KCR1 090628Z 13005KT 17/11 A3017 RMK A01 T01700108  RH  067%=      5-min Rain = 0
KCR1 090629Z 12005KT 17/11 A3017 RMK A01 T01700108  RH  067%=      5-min Rain = 0
KCR1 090630Z 13005KT 17/11 A3017 RMK A01 T01690108  RH  067%=      5-min Rain = 0
KCR1 090631Z 13005KT 17/11 A3017 RMK A01 T01690108  RH  067%=      5-min Rain = 0
KCR1 090632Z 12005KT 17/11 A3017 RMK A01 T01690108  RH  067%=      5-min Rain = 0
KCR1 090633Z 13005KT 17/11 A3017 RMK A01 T01690107  RH  067%=      5-min Rain = 0
KCR1 090634Z 13005KT 17/11 A3017 RMK A01 T01690107  RH  067%=      5-min Rain = 0
KCR1 090635Z 13006KT 17/11 A3016 RMK A01 T01690107  RH  067%=      5-min Rain = 0
KCR1 090636Z 13006KT 17/11 A3016 RMK A01 T01690106  RH  066%=      5-min Rain = 0
KCR1 090637Z 13006KT 17/11 A3016 RMK A01 T01690106  RH  066%=      5-min Rain = 0
KCR1 090638Z 13006KT 17/11 A3016 RMK A01 T01690106  RH  066%=      5-min Rain = 0
KCR1 090639Z 13006KT 17/11 A3016 RMK A01 T01690106  RH  066%=      5-min Rain = 0
KCR1 090640Z 13006KT 17/11 A3016 RMK A01 T01680106  RH  067%=      5-min Rain = 0
KCR1 090641Z 13006KT 17/11 A3016 RMK A01 T01690106  RH  067%=      5-min Rain = 0
KCR1 090642Z 13006KT 17/11 A3016 RMK A01 T01690106  RH  067%=      5-min Rain = 0
KCR1 090643Z 13006KT 17/11 A3016 RMK A01 T01680106  RH  067%=      5-min Rain = 0
KCR1 090644Z 13006KT 17/11 A3016 RMK A01 T01690106  RH  067%=      5-min Rain = 0
KCR1 090645Z 13006KT 17/11 A3016 RMK A01 T01690106  RH  066%=      5-min Rain = 0
KCR1 090646Z 13006KT 17/11 A3016 RMK A01 T01690106  RH  066%=      5-min Rain = 0
KCR1 090647Z 13006KT 17/11 A3016 RMK A01 T01690106  RH  066%=      5-min Rain = 0
KCR1 090648Z 13006KT 17/11 A3016 RMK A01 T01700106  RH  066%=      5-min Rain = 0
KCR1 090649Z 13006KT 17/11 A3016 RMK A01 T01700106  RH  066%=      5-min Rain = 0
KCR1 090650Z 13006KT 17/11 A3016 RMK A01 T01700106  RH  066%=      5-min Rain = 0
KCR1 090651Z 13006KT 17/11 A3016 RMK A01 T01700106  RH  066%=      5-min Rain = 0
KCR1 090652Z 13006KT 17/11 A3016 RMK A01 T01700105  RH  066%=      5-min Rain = 0
KCR1 090653Z 13006KT 17/11 A3016 RMK A01 T01700106  RH  066%=      5-min Rain = 0
KCR1 090654Z 13006KT 17/11 A3016 RMK A01 T01700105  RH  066%=      5-min Rain = 0
KCR1 090655Z 12005KT 17/11 A3016 RMK A01 T01690105  RH  066%=      5-min Rain = 0
KCR1 090656Z 12006KT 17/11 A3016 RMK A01 T01690105  RH  066%=      5-min Rain = 0
KCR1 090657Z 12005KT 17/11 A3016 RMK A01 T01690105  RH  066%=      5-min Rain = 0
KCR1 090658Z 12006KT 17/10 A3016 RMK A01 T01690104  RH  066%=      5-min Rain = 0
KCR1 090659Z 12005KT 17/10 A3016 RMK A01 T01690104  RH  066%=      5-min Rain = 0
KCR1 090700Z 12005KT 17/10 A3016 RMK A01 T01690104  RH  065%=      5-min Rain = 0
KCR1 090701Z 12005KT 17/10 A3016 RMK A01 T01690104  RH  065%=      5-min Rain = 0
KCR1 090702Z 12005KT 17/10 A3017 RMK A01 T01700104  RH  065%=      5-min Rain = 0
KCR1 090703Z 12005KT 17/10 A3017 RMK A01 T01700104  RH  065%=      5-min Rain = 0
KCR1 090704Z 12004KT 17/10 A3017 RMK A01 T01700104  RH  065%=      5-min Rain = 0
KCR1 090705Z 12004KT 17/10 A3017 RMK A01 T01700104  RH  065%=      5-min Rain = 0
KCR1 090706Z 12004KT 17/10 A3017 RMK A01 T01690104  RH  065%=      5-min Rain = 0
KCR1 090707Z 12005KT 17/10 A3017 RMK A01 T01690104  RH  065%=      5-min Rain = 0
KCR1 090708Z 12005KT 17/10 A3017 RMK A01 T01690104  RH  065%=      5-min Rain = 0
KCR1 090709Z 12006KT 17/10 A3017 RMK A01 T01690104  RH  065%=      5-min Rain = 0
KCR1 090710Z 12005KT 17/10 A3017 RMK A01 T01700104  RH  065%=      5-min Rain = 0
KCR1 090711Z 12005KT 17/10 A3017 RMK A01 T01700104  RH  065%=      5-min Rain = 0
KCR1 090712Z 13005KT 17/10 A3017 RMK A01 T01700104  RH  065%=      5-min Rain = 0
KCR1 090713Z 13005KT 17/10 A3017 RMK A01 T01700104  RH  065%=      5-min Rain = 0
KCR1 090714Z 13005KT 17/10 A3017 RMK A01 T01700104  RH  065%=      5-min Rain = 0
KCR1 090715Z 13005KT 17/11 A3017 RMK A01 T01700105  RH  065%=      5-min Rain = 0
KCR1 090716Z 13005KT 17/11 A3017 RMK A01 T01700105  RH  066%=      5-min Rain = 0
KCR1 090717Z 13004KT 17/11 A3017 RMK A01 T01700105  RH  066%=      5-min Rain = 0
KCR1 090718Z 13005KT 17/11 A3017 RMK A01 T01690105  RH  066%=      5-min Rain = 0
KCR1 090719Z 14005KT 17/11 A3017 RMK A01 T01690105  RH  066%=      5-min Rain = 0
KCR1 090720Z 13005KT 17/11 A3017 RMK A01 T01680105  RH  066%=      5-min Rain = 0
KCR1 090721Z 14005KT 17/11 A3017 RMK A01 T01680105  RH  066%=      5-min Rain = 0
KCR1 090722Z 14005KT 17/11 A3017 RMK A01 T01680105  RH  066%=      5-min Rain = 0
KCR1 090723Z 14005KT 17/11 A3017 RMK A01 T01670105  RH  067%=      5-min Rain = 0
KCR1 090724Z 14005KT 17/11 A3017 RMK A01 T01670105  RH  067%=      5-min Rain = 0
KCR1 090725Z 14005KT 17/11 A3017 RMK A01 T01670105  RH  067%=      5-min Rain = 0
KCR1 090726Z 14005KT 17/11 A3017 RMK A01 T01670105  RH  067%=      5-min Rain = 0
KCR1 090727Z 14004KT 17/11 A3017 RMK A01 T01660105  RH  067%=      5-min Rain = 0
KCR1 090728Z 13004KT 17/11 A3017 RMK A01 T01660106  RH  067%=      5-min Rain = 0
KCR1 090729Z 13004KT 17/11 A3017 RMK A01 T01660106  RH  067%=      5-min Rain = 0
KCR1 090730Z 14004KT 17/11 A3017 RMK A01 T01660106  RH  067%=      5-min Rain = 0
KCR1 090731Z 13004KT 17/11 A3017 RMK A01 T01660105  RH  068%=      5-min Rain = 0
KCR1 090732Z 13004KT 17/11 A3017 RMK A01 T01660106  RH  068%=      5-min Rain = 0
KCR1 090733Z 13004KT 17/11 A3017 RMK A01 T01660106  RH  068%=      5-min Rain = 0
KCR1 090734Z 13004KT 17/11 A3017 RMK A01 T01660106  RH  068%=      5-min Rain = 0
KCR1 090735Z 13004KT 17/11 A3017 RMK A01 T01660106  RH  068%=      5-min Rain = 0
KCR1 090736Z 14004KT 17/11 A3017 RMK A01 T01660106  RH  068%=      5-min Rain = 0
KCR1 090737Z 14004KT 17/11 A3017 RMK A01 T01660106  RH  068%=      5-min Rain = 0
KCR1 090738Z 14004KT 17/11 A3017 RMK A01 T01660106  RH  068%=      5-min Rain = 0
KCR1 090739Z 14004KT 17/11 A3017 RMK A01 T01660106  RH  068%=      5-min Rain = 0
KCR1 090740Z 14005KT 17/11 A3017 RMK A01 T01660106  RH  068%=      5-min Rain = 0
KCR1 090741Z 14005KT 17/11 A3017 RMK A01 T01660106  RH  068%=      5-min Rain = 0
KCR1 090742Z 14005KT 17/11 A3017 RMK A01 T01660107  RH  068%=      5-min Rain = 0
KCR1 090743Z 14005KT 17/11 A3017 RMK A01 T01670107  RH  068%=      5-min Rain = 0
KCR1 090744Z 14006KT 17/11 A3017 RMK A01 T01670107  RH  068%=      5-min Rain = 0
KCR1 090745Z 14006KT 17/11 A3017 RMK A01 T01680107  RH  068%=      5-min Rain = 0
KCR1 090746Z 14007KT 17/11 A3017 RMK A01 T01680107  RH  068%=      5-min Rain = 0
KCR1 090747Z 14006KT 17/11 A3017 RMK A01 T01690108  RH  067%=      5-min Rain = 0
KCR1 090748Z 14006KT 17/11 A3017 RMK A01 T01690108  RH  067%=      5-min Rain = 0
KCR1 090749Z 14007KT 17/11 A3017 RMK A01 T01700108  RH  067%=      5-min Rain = 0
KCR1 090750Z 14007KT 17/11 A3017 RMK A01 T01700108  RH  067%=      5-min Rain = 0
KCR1 090751Z 14006KT 17/11 A3017 RMK A01 T01710109  RH  067%=      5-min Rain = 0
KCR1 090752Z 14007KT 17/11 A3017 RMK A01 T01720109  RH  066%=      5-min Rain = 0
KCR1 090753Z 14007KT 17/11 A3017 RMK A01 T01730109  RH  066%=      5-min Rain = 0
KCR1 090754Z 14008KT 17/11 A3017 RMK A01 T01730109  RH  066%=      5-min Rain = 0
KCR1 090755Z 14007KT 17/11 A3017 RMK A01 T01740109  RH  066%=      5-min Rain = 0
KCR1 090756Z 14006KT 17/11 A3017 RMK A01 T01740109  RH  065%=      5-min Rain = 0
KCR1 090757Z 14006KT 18/11 A3017 RMK A01 T01750109  RH  065%=      5-min Rain = 0
KCR1 090758Z 14007KT 18/11 A3017 RMK A01 T01750109  RH  065%=      5-min Rain = 0
KCR1 090759Z 13007KT 18/11 A3017 RMK A01 T01750109  RH  065%=      5-min Rain = 0
KCR1 090800Z 13007KT 18/11 A3017 RMK A01 T01750108  RH  065%=      5-min Rain = 0
KCR1 090801Z 14006KT 18/11 A3017 RMK A01 T01750108  RH  065%=      5-min Rain = 0
KCR1 090802Z 13006KT 18/11 A3017 RMK A01 T01750108  RH  065%=      5-min Rain = 0
KCR1 090803Z 13006KT 18/11 A3017 RMK A01 T01750108  RH  065%=      5-min Rain = 0
KCR1 090804Z 13006KT 18/11 A3017 RMK A01 T01750107  RH  064%=      5-min Rain = 0
KCR1 090805Z 13006KT 18/11 A3017 RMK A01 T01750107  RH  064%=      5-min Rain = 0
KCR1 090806Z 13006KT 18/11 A3017 RMK A01 T01750107  RH  064%=      5-min Rain = 0
KCR1 090807Z 13006KT 18/11 A3017 RMK A01 T01750107  RH  065%=      5-min Rain = 0
KCR1 090808Z 13006KT 18/11 A3017 RMK A01 T01750108  RH  065%=      5-min Rain = 0
KCR1 090809Z 13006KT 17/11 A3017 RMK A01 T01740108  RH  065%=      5-min Rain = 0
KCR1 090810Z 13006KT 17/11 A3017 RMK A01 T01730107  RH  065%=      5-min Rain = 0
KCR1 090811Z 13006KT 17/11 A3017 RMK A01 T01730107  RH  065%=      5-min Rain = 0
KCR1 090812Z 13006KT 17/11 A3017 RMK A01 T01730107  RH  065%=      5-min Rain = 0
KCR1 090813Z 13006KT 17/11 A3017 RMK A01 T01730107  RH  065%=      5-min Rain = 0
KCR1 090814Z 13006KT 17/11 A3017 RMK A01 T01720107  RH  066%=      5-min Rain = 0
KCR1 090815Z 13006KT 17/11 A3017 RMK A01 T01720108  RH  066%=      5-min Rain = 0
KCR1 090816Z 14006KT 17/11 A3017 RMK A01 T01720107  RH  066%=      5-min Rain = 0
KCR1 090817Z 13006KT 17/11 A3017 RMK A01 T01710107  RH  066%=      5-min Rain = 0
KCR1 090818Z 13006KT 17/11 A3017 RMK A01 T01710107  RH  066%=      5-min Rain = 0
KCR1 090819Z 13005KT 17/11 A3017 RMK A01 T01700107  RH  066%=      5-min Rain = 0
KCR1 090820Z 13005KT 17/11 A3017 RMK A01 T01700107  RH  067%=      5-min Rain = 0
KCR1 090821Z 13005KT 17/11 A3017 RMK A01 T01690107  RH  067%=      5-min Rain = 0
KCR1 090822Z 13005KT 17/11 A3017 RMK A01 T01680107  RH  067%=      5-min Rain = 0
KCR1 090823Z 13005KT 17/11 A3017 RMK A01 T01680107  RH  067%=      5-min Rain = 0
KCR1 090824Z 13005KT 17/11 A3017 RMK A01 T01680107  RH  067%=      5-min Rain = 0
KCR1 090825Z 13005KT 17/11 A3017 RMK A01 T01670107  RH  067%=      5-min Rain = 0
KCR1 090826Z 13005KT 17/11 A3018 RMK A01 T01670107  RH  067%=      5-min Rain = 0
KCR1 090827Z 14005KT 17/11 A3018 RMK A01 T01670107  RH  068%=      5-min Rain = 0
KCR1 090828Z 14005KT 17/11 A3018 RMK A01 T01660106  RH  068%=      5-min Rain = 0
KCR1 090829Z 14005KT 17/11 A3018 RMK A01 T01660106  RH  068%=      5-min Rain = 0
KCR1 090830Z 14004KT 17/11 A3018 RMK A01 T01650106  RH  068%=      5-min Rain = 0
KCR1 090831Z 14004KT 17/11 A3018 RMK A01 T01650107  RH  068%=      5-min Rain = 0
KCR1 090832Z 14004KT 16/11 A3018 RMK A01 T01640106  RH  069%=      5-min Rain = 0
KCR1 090833Z 14004KT 16/11 A3018 RMK A01 T01640107  RH  069%=      5-min Rain = 0
KCR1 090834Z 14004KT 16/11 A3018 RMK A01 T01630106  RH  069%=      5-min Rain = 0
KCR1 090835Z 14004KT 16/11 A3018 RMK A01 T01640107  RH  069%=      5-min Rain = 0
KCR1 090836Z 14004KT 16/11 A3018 RMK A01 T01630106  RH  069%=      5-min Rain = 0
KCR1 090837Z 14004KT 16/11 A3018 RMK A01 T01630106  RH  069%=      5-min Rain = 0
KCR1 090838Z 14004KT 16/11 A3018 RMK A01 T01630107  RH  069%=      5-min Rain = 0
KCR1 090839Z 14004KT 16/11 A3018 RMK A01 T01630106  RH  069%=      5-min Rain = 0
KCR1 090840Z 14004KT 16/11 A3018 RMK A01 T01630107  RH  069%=      5-min Rain = 0
KCR1 090841Z 14004KT 16/11 A3018 RMK A01 T01620107  RH  069%=      5-min Rain = 0
KCR1 090842Z 14004KT 16/11 A3018 RMK A01 T01620106  RH  070%=      5-min Rain = 0
KCR1 090843Z 14004KT 16/11 A3018 RMK A01 T01620106  RH  070%=      5-min Rain = 0
KCR1 090844Z 14004KT 16/11 A3018 RMK A01 T01610106  RH  070%=      5-min Rain = 0
KCR1 090845Z 14004KT 16/11 A3018 RMK A01 T01610106  RH  070%=      5-min Rain = 0
KCR1 090846Z 14004KT 16/11 A3018 RMK A01 T01610107  RH  070%=      5-min Rain = 0
KCR1 090847Z 14004KT 16/11 A3018 RMK A01 T01610106  RH  070%=      5-min Rain = 0
KCR1 090848Z 14004KT 16/11 A3018 RMK A01 T01610107  RH  070%=      5-min Rain = 0
KCR1 090849Z 14004KT 16/11 A3018 RMK A01 T01600106  RH  070%=      5-min Rain = 0
KCR1 090850Z 14004KT 16/11 A3018 RMK A01 T01600106  RH  070%=      5-min Rain = 0
KCR1 090851Z 14003KT 16/11 A3018 RMK A01 T01600106  RH  071%=      5-min Rain = 0
KCR1 090852Z 14003KT 16/11 A3018 RMK A01 T01590106  RH  071%=      5-min Rain = 0
KCR1 090853Z 14003KT 16/11 A3018 RMK A01 T01590106  RH  071%=      5-min Rain = 0
KCR1 090854Z 13003KT 16/11 A3018 RMK A01 T01590106  RH  071%=      5-min Rain = 0
KCR1 090855Z 13003KT 16/11 A3018 RMK A01 T01580106  RH  071%=      5-min Rain = 0
KCR1 090856Z 13003KT 16/11 A3018 RMK A01 T01580106  RH  071%=      5-min Rain = 0
KCR1 090857Z 13004KT 16/11 A3018 RMK A01 T01580106  RH  071%=      5-min Rain = 0
KCR1 090858Z 13003KT 16/11 A3018 RMK A01 T01580106  RH  071%=      5-min Rain = 0
KCR1 090859Z 13003KT 16/11 A3018 RMK A01 T01580106  RH  071%=      5-min Rain = 0
KCR1 090900Z 13004KT 16/11 A3018 RMK A01 T01580106  RH  071%=      5-min Rain = 0
KCR1 090901Z 13004KT 16/11 A3018 RMK A01 T01590106  RH  071%=      5-min Rain = 0
KCR1 090902Z 13004KT 16/11 A3018 RMK A01 T01590106  RH  070%=      5-min Rain = 0
KCR1 090903Z 13004KT 16/11 A3018 RMK A01 T01600106  RH  070%=      5-min Rain = 0
KCR1 090904Z 13004KT 16/11 A3018 RMK A01 T01600106  RH  070%=      5-min Rain = 0
KCR1 090905Z 13004KT 16/11 A3018 RMK A01 T01600106  RH  070%=      5-min Rain = 0
KCR1 090906Z 13004KT 16/11 A3018 RMK A01 T01610106  RH  070%=      5-min Rain = 0
KCR1 090907Z 13004KT 16/11 A3018 RMK A01 T01600106  RH  070%=      5-min Rain = 0
KCR1 090908Z 13004KT 16/11 A3018 RMK A01 T01600105  RH  070%=      5-min Rain = 0
KCR1 090909Z 13004KT 16/11 A3018 RMK A01 T01610105  RH  070%=      5-min Rain = 0
KCR1 090910Z 13004KT 16/11 A3018 RMK A01 T01610105  RH  069%=      5-min Rain = 0
KCR1 090911Z 12004KT 16/11 A3018 RMK A01 T01610105  RH  069%=      5-min Rain = 0
KCR1 090912Z 12004KT 16/11 A3018 RMK A01 T01610105  RH  069%=      5-min Rain = 0
KCR1 090913Z 12004KT 16/10 A3018 RMK A01 T01610104  RH  069%=      5-min Rain = 0
KCR1 090914Z 12004KT 16/10 A3018 RMK A01 T01610104  RH  069%=      5-min Rain = 0
KCR1 090915Z 12004KT 16/11 A3018 RMK A01 T01610105  RH  069%=      5-min Rain = 0
KCR1 090916Z 12004KT 16/11 A3018 RMK A01 T01610106  RH  070%=      5-min Rain = 0
KCR1 090917Z 12004KT 16/11 A3018 RMK A01 T01610106  RH  070%=      5-min Rain = 0
KCR1 090918Z 12004KT 16/11 A3018 RMK A01 T01600106  RH  070%=      5-min Rain = 0
KCR1 090919Z 12004KT 16/11 A3018 RMK A01 T01600106  RH  070%=      5-min Rain = 0
KCR1 090920Z 12004KT 16/11 A3018 RMK A01 T01600106  RH  070%=      5-min Rain = 0
KCR1 090921Z 12004KT 16/11 A3018 RMK A01 T01600106  RH  071%=      5-min Rain = 0
KCR1 090922Z 13004KT 16/11 A3018 RMK A01 T01600107  RH  071%=      5-min Rain = 0
KCR1 090923Z 12004KT 16/11 A3019 RMK A01 T01600106  RH  071%=      5-min Rain = 0
KCR1 090924Z 12004KT 16/11 A3019 RMK A01 T01600106  RH  071%=      5-min Rain = 0
KCR1 090925Z 13004KT 16/11 A3019 RMK A01 T01600106  RH  071%=      5-min Rain = 0
KCR1 090926Z 13004KT 16/11 A3019 RMK A01 T01600106  RH  070%=      5-min Rain = 0
KCR1 090927Z 13004KT 16/11 A3019 RMK A01 T01600106  RH  070%=      5-min Rain = 0
KCR1 090928Z 13004KT 16/11 A3019 RMK A01 T01600106  RH  070%=      5-min Rain = 0
KCR1 090929Z 13004KT 16/11 A3019 RMK A01 T01600106  RH  070%=      5-min Rain = 0
KCR1 090930Z 13004KT 16/11 A3019 RMK A01 T01600106  RH  070%=      5-min Rain = 0
KCR1 090931Z 13004KT 16/11 A3018 RMK A01 T01600106  RH  070%=      5-min Rain = 0
KCR1 090932Z 13004KT 16/11 A3018 RMK A01 T01600106  RH  070%=      5-min Rain = 0
KCR1 090933Z 13004KT 16/11 A3018 RMK A01 T01600106  RH  070%=      5-min Rain = 0
KCR1 090934Z 13004KT 16/11 A3018 RMK A01 T01600106  RH  070%=      5-min Rain = 0
KCR1 090935Z 13004KT 16/11 A3018 RMK A01 T01600106  RH  070%=      5-min Rain = 0
KCR1 090936Z 13004KT 16/11 A3018 RMK A01 T01600106  RH  070%=      5-min Rain = 0
KCR1 090937Z 13004KT 16/11 A3018 RMK A01 T01600106  RH  070%=      5-min Rain = 0
KCR1 090938Z 12004KT 16/11 A3018 RMK A01 T01600106  RH  071%=      5-min Rain = 0
KCR1 090939Z 12004KT 16/11 A3018 RMK A01 T01600107  RH  071%=      5-min Rain = 0
KCR1 090940Z 12004KT 16/11 A3018 RMK A01 T01590107  RH  071%=      5-min Rain = 0
KCR1 090941Z 12004KT 16/11 A3018 RMK A01 T01590107  RH  071%=      5-min Rain = 0
KCR1 090942Z 12004KT 16/11 A3018 RMK A01 T01590107  RH  071%=      5-min Rain = 0
KCR1 090943Z 12004KT 16/11 A3018 RMK A01 T01590107  RH  071%=      5-min Rain = 0
KCR1 090944Z 12004KT 16/11 A3018 RMK A01 T01590107  RH  071%=      5-min Rain = 0
KCR1 090945Z 12004KT 16/11 A3018 RMK A01 T01590108  RH  071%=      5-min Rain = 0
KCR1 090946Z 12004KT 16/11 A3018 RMK A01 T01590108  RH  072%=      5-min Rain = 0
KCR1 090947Z 12004KT 16/11 A3018 RMK A01 T01590108  RH  072%=      5-min Rain = 0
KCR1 090948Z 12004KT 16/11 A3018 RMK A01 T01590108  RH  072%=      5-min Rain = 0
KCR1 090949Z 12005KT 16/11 A3018 RMK A01 T01590108  RH  072%=      5-min Rain = 0
KCR1 090950Z 12005KT 16/11 A3018 RMK A01 T01580108  RH  072%=      5-min Rain = 0
KCR1 090951Z 12004KT 16/11 A3018 RMK A01 T01580108  RH  072%=      5-min Rain = 0
KCR1 090952Z 12004KT 16/11 A3018 RMK A01 T01580108  RH  072%=      5-min Rain = 0
KCR1 090953Z 12004KT 16/11 A3018 RMK A01 T01580109  RH  072%=      5-min Rain = 0
KCR1 090954Z 11004KT 16/11 A3018 RMK A01 T01580108  RH  072%=      5-min Rain = 0
KCR1 090955Z 11004KT 16/11 A3018 RMK A01 T01580108  RH  072%=      5-min Rain = 0
KCR1 090956Z 11004KT 16/11 A3018 RMK A01 T01580109  RH  072%=      5-min Rain = 0
KCR1 090957Z 11004KT 16/11 A3018 RMK A01 T01580109  RH  073%=      5-min Rain = 0
KCR1 090958Z 11004KT 16/11 A3018 RMK A01 T01580109  RH  073%=      5-min Rain = 0
KCR1 090959Z 11004KT 16/11 A3018 RMK A01 T01580108  RH  072%=      5-min Rain = 0
KCR1 091000Z 11004KT 16/11 A3018 RMK A01 T01580108  RH  072%=      5-min Rain = 0
KCR1 091001Z 11004KT 16/11 A3018 RMK A01 T01580108  RH  072%=      5-min Rain = 0
KCR1 091002Z 11003KT 16/11 A3018 RMK A01 T01580108  RH  072%=      5-min Rain = 0
KCR1 091003Z 11003KT 16/11 A3018 RMK A01 T01580108  RH  072%=      5-min Rain = 0
KCR1 091004Z 11003KT 16/11 A3018 RMK A01 T01580108  RH  072%=      5-min Rain = 0
KCR1 091005Z 11003KT 16/11 A3018 RMK A01 T01570107  RH  072%=      5-min Rain = 0
KCR1 091006Z 11003KT 16/11 A3018 RMK A01 T01570108  RH  072%=      5-min Rain = 0
KCR1 091007Z 11003KT 16/11 A3018 RMK A01 T01570107  RH  072%=      5-min Rain = 0
KCR1 091008Z 11003KT 16/11 A3018 RMK A01 T01560107  RH  072%=      5-min Rain = 0
KCR1 091009Z 11003KT 16/11 A3018 RMK A01 T01570107  RH  072%=      5-min Rain = 0
KCR1 091010Z 11003KT 16/11 A3018 RMK A01 T01560107  RH  072%=      5-min Rain = 0
KCR1 091011Z 11003KT 16/11 A3018 RMK A01 T01570107  RH  072%=      5-min Rain = 0
KCR1 091012Z 11003KT 16/11 A3018 RMK A01 T01570107  RH  072%=      5-min Rain = 0
KCR1 091013Z 11003KT 16/11 A3018 RMK A01 T01570107  RH  072%=      5-min Rain = 0
KCR1 091014Z 11003KT 16/11 A3018 RMK A01 T01570107  RH  072%=      5-min Rain = 0
KCR1 091015Z 11003KT 16/11 A3018 RMK A01 T01570107  RH  072%=      5-min Rain = 0
KCR1 091016Z 11003KT 16/11 A3018 RMK A01 T01570107  RH  072%=      5-min Rain = 0
KCR1 091017Z 11003KT 16/11 A3018 RMK A01 T01570107  RH  072%=      5-min Rain = 0
KCR1 091018Z 11003KT 16/11 A3018 RMK A01 T01570106  RH  072%=      5-min Rain = 0
KCR1 091019Z 11003KT 16/11 A3018 RMK A01 T01580107  RH  072%=      5-min Rain = 0
KCR1 091020Z 11003KT 16/11 A3018 RMK A01 T01580107  RH  071%=      5-min Rain = 0
KCR1 091021Z 11003KT 16/11 A3018 RMK A01 T01580107  RH  071%=      5-min Rain = 0
KCR1 091022Z 11003KT 16/11 A3018 RMK A01 T01590107  RH  071%=      5-min Rain = 0
KCR1 091023Z 11003KT 16/11 A3018 RMK A01 T01590107  RH  071%=      5-min Rain = 0
KCR1 091024Z 11003KT 16/11 A3018 RMK A01 T01590107  RH  071%=      5-min Rain = 0
KCR1 091025Z 11003KT 16/11 A3018 RMK A01 T01580107  RH  071%=      5-min Rain = 0
KCR1 091026Z 11003KT 16/11 A3018 RMK A01 T01580107  RH  071%=      5-min Rain = 0
KCR1 091027Z 11003KT 16/11 A3019 RMK A01 T01580107  RH  071%=      5-min Rain = 0
KCR1 091028Z 11003KT 16/11 A3019 RMK A01 T01580106  RH  071%=      5-min Rain = 0
KCR1 091029Z 11003KT 16/11 A3019 RMK A01 T01580106  RH  071%=      5-min Rain = 0
KCR1 091030Z 11003KT 16/11 A3019 RMK A01 T01580106  RH  071%=      5-min Rain = 0
KCR1 091031Z 11003KT 16/11 A3019 RMK A01 T01580106  RH  071%=      5-min Rain = 0
KCR1 091032Z 11003KT 16/11 A3019 RMK A01 T01580106  RH  071%=      5-min Rain = 0
KCR1 091033Z 11003KT 16/11 A3019 RMK A01 T01580106  RH  071%=      5-min Rain = 0
KCR1 091034Z 11003KT 16/11 A3019 RMK A01 T01580106  RH  071%=      5-min Rain = 0
KCR1 091035Z 10003KT 16/11 A3019 RMK A01 T01580106  RH  071%=      5-min Rain = 0
KCR1 091036Z 11003KT 16/11 A3019 RMK A01 T01580106  RH  071%=      5-min Rain = 0
KCR1 091037Z 10003KT 16/11 A3019 RMK A01 T01570106  RH  071%=      5-min Rain = 0
KCR1 091038Z 11003KT 16/11 A3019 RMK A01 T01570106  RH  072%=      5-min Rain = 0
KCR1 091039Z 11003KT 16/11 A3019 RMK A01 T01580107  RH  072%=      5-min Rain = 0
KCR1 091040Z 10003KT 16/11 A3019 RMK A01 T01570107  RH  072%=      5-min Rain = 0
KCR1 091041Z 10003KT 16/11 A3019 RMK A01 T01570106  RH  072%=      5-min Rain = 0
KCR1 091042Z 10002KT 16/11 A3019 RMK A01 T01570106  RH  072%=      5-min Rain = 0
KCR1 091043Z 11002KT 16/11 A3019 RMK A01 T01560106  RH  072%=      5-min Rain = 0
KCR1 091044Z 11003KT 16/11 A3019 RMK A01 T01560106  RH  072%=      5-min Rain = 0
KCR1 091045Z 11003KT 16/11 A3019 RMK A01 T01560106  RH  072%=      5-min Rain = 0
KCR1 091046Z 11003KT 16/11 A3019 RMK A01 T01550106  RH  072%=      5-min Rain = 0
KCR1 091047Z 11003KT 16/11 A3019 RMK A01 T01560106  RH  072%=      5-min Rain = 0
KCR1 091048Z 11003KT 16/11 A3019 RMK A01 T01560106  RH  072%=      5-min Rain = 0
KCR1 091049Z 11003KT 16/11 A3019 RMK A01 T01550107  RH  073%=      5-min Rain = 0
KCR1 091050Z 11003KT 16/11 A3019 RMK A01 T01550107  RH  073%=      5-min Rain = 0
KCR1 091051Z 11003KT 16/11 A3019 RMK A01 T01550106  RH  073%=      5-min Rain = 0
KCR1 091052Z 11003KT 16/11 A3019 RMK A01 T01550106  RH  073%=      5-min Rain = 0
KCR1 091053Z 11003KT 16/11 A3019 RMK A01 T01550106  RH  073%=      5-min Rain = 0
KCR1 091054Z 11003KT 16/11 A3019 RMK A01 T01550107  RH  073%=      5-min Rain = 0
KCR1 091055Z 11003KT 16/11 A3019 RMK A01 T01550107  RH  073%=      5-min Rain = 0
KCR1 091056Z 11003KT 16/11 A3019 RMK A01 T01550107  RH  073%=      5-min Rain = 0
KCR1 091057Z 11003KT 16/11 A3019 RMK A01 T01550107  RH  073%=      5-min Rain = 0
KCR1 091058Z 11003KT 16/11 A3019 RMK A01 T01550108  RH  073%=      5-min Rain = 0
KCR1 091059Z 11003KT 16/11 A3019 RMK A01 T01550107  RH  073%=      5-min Rain = 0
KCR1 091100Z 11003KT 16/11 A3019 RMK A01 T01550107  RH  073%=      5-min Rain = 0
KCR1 091101Z 11003KT 16/11 A3019 RMK A01 T01550107  RH  073%=      5-min Rain = 0
KCR1 091102Z 11003KT 16/11 A3019 RMK A01 T01550107  RH  073%=      5-min Rain = 0
KCR1 091103Z 12003KT 16/11 A3019 RMK A01 T01550107  RH  073%=      5-min Rain = 0
KCR1 091104Z 12003KT 16/11 A3019 RMK A01 T01550107  RH  073%=      5-min Rain = 0
KCR1 091105Z 12003KT 16/11 A3019 RMK A01 T01550107  RH  073%=      5-min Rain = 0
KCR1 091106Z 12003KT 16/11 A3019 RMK A01 T01550107  RH  073%=      5-min Rain = 0
KCR1 091107Z 12003KT 16/11 A3019 RMK A01 T01550107  RH  073%=      5-min Rain = 0
KCR1 091108Z 12004KT 16/11 A3019 RMK A01 T01550108  RH  073%=      5-min Rain = 0
KCR1 091109Z 12004KT 16/11 A3019 RMK A01 T01550108  RH  074%=      5-min Rain = 0
KCR1 091110Z 12004KT 16/11 A3019 RMK A01 T01550109  RH  074%=      5-min Rain = 0
KCR1 091111Z 12004KT 16/11 A3019 RMK A01 T01550109  RH  074%=      5-min Rain = 0
KCR1 091112Z 12004KT 15/11 A3019 RMK A01 T01540109  RH  074%=      5-min Rain = 0
KCR1 091113Z 12003KT 15/11 A3019 RMK A01 T01540109  RH  074%=      5-min Rain = 0
KCR1 091114Z 12004KT 15/11 A3019 RMK A01 T01540109  RH  075%=      5-min Rain = 0
KCR1 091115Z 12003KT 15/11 A3019 RMK A01 T01530108  RH  075%=      5-min Rain = 0
KCR1 091116Z 12003KT 15/11 A3019 RMK A01 T01530109  RH  075%=      5-min Rain = 0
KCR1 091117Z 12003KT 15/11 A3019 RMK A01 T01530109  RH  075%=      5-min Rain = 0
KCR1 091118Z 12003KT 15/11 A3019 RMK A01 T01530108  RH  075%=      5-min Rain = 0
KCR1 091119Z 12003KT 15/11 A3019 RMK A01 T01530109  RH  075%=      5-min Rain = 0
KCR1 091120Z 12003KT 15/11 A3019 RMK A01 T01530109  RH  075%=      5-min Rain = 0
KCR1 091121Z 12003KT 15/11 A3019 RMK A01 T01530109  RH  075%=      5-min Rain = 0
KCR1 091122Z 12003KT 15/11 A3019 RMK A01 T01530109  RH  075%=      5-min Rain = 0
KCR1 091123Z 12003KT 15/11 A3019 RMK A01 T01530109  RH  075%=      5-min Rain = 0
KCR1 091124Z 11003KT 15/11 A3019 RMK A01 T01530109  RH  075%=      5-min Rain = 0
KCR1 091125Z 11004KT 15/11 A3019 RMK A01 T01530110  RH  075%=      5-min Rain = 0
KCR1 091126Z 11004KT 15/11 A3019 RMK A01 T01530110  RH  076%=      5-min Rain = 0
KCR1 091127Z 11004KT 15/11 A3019 RMK A01 T01530109  RH  075%=      5-min Rain = 0
KCR1 091128Z 11004KT 15/11 A3019 RMK A01 T01520109  RH  075%=      5-min Rain = 0
KCR1 091129Z 11003KT 15/11 A3019 RMK A01 T01520109  RH  075%=      5-min Rain = 0
KCR1 091130Z 11003KT 15/11 A3019 RMK A01 T01510109  RH  076%=      5-min Rain = 0
KCR1 091131Z 11003KT 15/11 A3019 RMK A01 T01510109  RH  076%=      5-min Rain = 0
KCR1 091132Z 11003KT 15/11 A3019 RMK A01 T01510109  RH  076%=      5-min Rain = 0
KCR1 091133Z 11003KT 15/11 A302 RMK A01 T01510109  RH  076%=      5-min Rain = 0
KCR1 091134Z 11003KT 15/11 A302 RMK A01 T01510109  RH  076%=      5-min Rain = 0
KCR1 091135Z 11003KT 15/11 A302 RMK A01 T01500108  RH  076%=      5-min Rain = 0
KCR1 091136Z 11003KT 15/11 A302 RMK A01 T01500108  RH  076%=      5-min Rain = 0
KCR1 091137Z 11003KT 15/11 A302 RMK A01 T01490108  RH  076%=      5-min Rain = 0
KCR1 091138Z 11003KT 15/11 A302 RMK A01 T01490108  RH  076%=      5-min Rain = 0
KCR1 091139Z 12003KT 15/11 A302 RMK A01 T01490108  RH  076%=      5-min Rain = 0
KCR1 091140Z 12003KT 15/11 A302 RMK A01 T01490108  RH  076%=      5-min Rain = 0
KCR1 091141Z 12003KT 15/11 A302 RMK A01 T01480107  RH  076%=      5-min Rain = 0
KCR1 091142Z 12003KT 15/11 A302 RMK A01 T01480107  RH  076%=      5-min Rain = 0
KCR1 091143Z 12003KT 15/11 A302 RMK A01 T01480107  RH  076%=      5-min Rain = 0
KCR1 091144Z 12003KT 15/11 A302 RMK A01 T01480108  RH  077%=      5-min Rain = 0
KCR1 091145Z 12003KT 15/11 A302 RMK A01 T01480108  RH  077%=      5-min Rain = 0
KCR1 091146Z 12003KT 15/11 A302 RMK A01 T01480107  RH  077%=      5-min Rain = 0
KCR1 091147Z 12003KT 15/11 A302 RMK A01 T01470107  RH  077%=      5-min Rain = 0
KCR1 091148Z 12003KT 15/11 A302 RMK A01 T01470107  RH  077%=      5-min Rain = 0
KCR1 091149Z 12003KT 15/11 A302 RMK A01 T01470107  RH  077%=      5-min Rain = 0
KCR1 091150Z 12003KT 15/11 A302 RMK A01 T01460107  RH  077%=      5-min Rain = 0
KCR1 091151Z 11003KT 15/11 A302 RMK A01 T01460107  RH  078%=      5-min Rain = 0
KCR1 091152Z 11003KT 15/11 A302 RMK A01 T01460108  RH  078%=      5-min Rain = 0
KCR1 091153Z 11003KT 15/11 A302 RMK A01 T01460108  RH  078%=      5-min Rain = 0
KCR1 091154Z 11003KT 15/11 A302 RMK A01 T01460108  RH  078%=      5-min Rain = 0
KCR1 091155Z 12003KT 15/11 A302 RMK A01 T01460108  RH  078%=      5-min Rain = 0
KCR1 091156Z 12003KT 15/11 A302 RMK A01 T01460108  RH  078%=      5-min Rain = 0
KCR1 091157Z 12003KT 15/11 A302 RMK A01 T01460109  RH  078%=      5-min Rain = 0
KCR1 091158Z 12003KT 15/11 A302 RMK A01 T01470109  RH  078%=      5-min Rain = 0
KCR1 091159Z 13003KT 15/11 A302 RMK A01 T01470109  RH  078%=      5-min Rain = 0
KCR1 091200Z 13003KT 15/11 A302 RMK A01 T01480109  RH  078%=      5-min Rain = 0
KCR1 091201Z 13003KT 15/11 A302 RMK A01 T01480110  RH  078%=      5-min Rain = 0
KCR1 091202Z 13003KT 15/11 A302 RMK A01 T01490110  RH  077%=      5-min Rain = 0
KCR1 091203Z 13003KT 15/11 A302 RMK A01 T01490110  RH  077%=      5-min Rain = 0
KCR1 091204Z 14003KT 15/11 A302 RMK A01 T01490110  RH  077%=      5-min Rain = 0
KCR1 091205Z 14003KT 15/11 A302 RMK A01 T01500109  RH  077%=      5-min Rain = 0
KCR1 091206Z 14003KT 15/11 A302 RMK A01 T01500109  RH  077%=      5-min Rain = 0
KCR1 091207Z 14003KT 15/11 A302 RMK A01 T01490109  RH  077%=      5-min Rain = 0
KCR1 091208Z 14003KT 15/11 A302 RMK A01 T01490109  RH  077%=      5-min Rain = 0
KCR1 091209Z 15003KT 15/11 A302 RMK A01 T01480108  RH  077%=      5-min Rain = 0
KCR1 091210Z 15003KT 15/11 A302 RMK A01 T01470108  RH  077%=      5-min Rain = 0
KCR1 091211Z 15003KT 15/11 A3021 RMK A01 T01480109  RH  078%=      5-min Rain = 0
KCR1 091212Z 16003KT 15/11 A3021 RMK A01 T01470109  RH  078%=      5-min Rain = 0
KCR1 091213Z 15003KT 15/11 A3021 RMK A01 T01470109  RH  078%=      5-min Rain = 0
KCR1 091214Z 15003KT 15/11 A3021 RMK A01 T01470109  RH  078%=      5-min Rain = 0
KCR1 091215Z 15003KT 15/11 A3021 RMK A01 T01470109  RH  078%=      5-min Rain = 0
KCR1 091216Z 14002KT 15/11 A3021 RMK A01 T01470109  RH  078%=      5-min Rain = 0
KCR1 091217Z 14002KT 15/11 A3021 RMK A01 T01470109  RH  078%=      5-min Rain = 0
KCR1 091218Z 14003KT 15/11 A3021 RMK A01 T01480109  RH  077%=      5-min Rain = 0
KCR1 091219Z 13003KT 15/11 A3021 RMK A01 T01480109  RH  077%=      5-min Rain = 0
KCR1 091220Z 14002KT 15/11 A3021 RMK A01 T01480109  RH  078%=      5-min Rain = 0
KCR1 091221Z 13002KT 15/11 A3021 RMK A01 T01480109  RH  078%=      5-min Rain = 0
KCR1 091222Z 13002KT 15/11 A3021 RMK A01 T01480109  RH  078%=      5-min Rain = 0
KCR1 091223Z 13002KT 15/11 A3021 RMK A01 T01480109  RH  077%=      5-min Rain = 0
KCR1 091224Z 12002KT 15/11 A3021 RMK A01 T01480109  RH  077%=      5-min Rain = 0
KCR1 091225Z 12002KT 15/11 A3021 RMK A01 T01480109  RH  077%=      5-min Rain = 0
KCR1 091226Z 12003KT 15/11 A3021 RMK A01 T01480109  RH  077%=      5-min Rain = 0
KCR1 091227Z 11003KT 15/11 A3021 RMK A01 T01490109  RH  077%=      5-min Rain = 0
KCR1 091228Z 12003KT 15/11 A3021 RMK A01 T01490109  RH  077%=      5-min Rain = 0
KCR1 091229Z 12003KT 15/11 A3021 RMK A01 T01500109  RH  077%=      5-min Rain = 0
KCR1 091230Z 12003KT 15/11 A3021 RMK A01 T01500109  RH  077%=      5-min Rain = 0
KCR1 091231Z 12003KT 15/11 A3021 RMK A01 T01510110  RH  077%=      5-min Rain = 0
KCR1 091232Z 11003KT 15/11 A3021 RMK A01 T01500110  RH  077%=      5-min Rain = 0
KCR1 091233Z 12003KT 15/11 A3021 RMK A01 T01510110  RH  077%=      5-min Rain = 0
KCR1 091234Z 11003KT 15/11 A3021 RMK A01 T01500110  RH  077%=      5-min Rain = 0
KCR1 091235Z 12003KT 15/11 A3021 RMK A01 T01500109  RH  077%=      5-min Rain = 0
KCR1 091236Z 11003KT 15/11 A3021 RMK A01 T01500109  RH  077%=      5-min Rain = 0
KCR1 091237Z 11003KT 15/11 A3021 RMK A01 T01500109  RH  077%=      5-min Rain = 0
KCR1 091238Z 11003KT 15/11 A3021 RMK A01 T01500109  RH  077%=      5-min Rain = 0
KCR1 091239Z 11003KT 15/11 A3021 RMK A01 T01500109  RH  077%=      5-min Rain = 0
KCR1 091240Z 11003KT 15/11 A3021 RMK A01 T01500110  RH  077%=      5-min Rain = 0
KCR1 091241Z 11003KT 15/11 A3021 RMK A01 T01500111  RH  077%=      5-min Rain = 0
KCR1 091242Z 11003KT 15/11 A3021 RMK A01 T01500111  RH  077%=      5-min Rain = 0
KCR1 091243Z 11003KT 15/11 A3021 RMK A01 T01500111  RH  077%=      5-min Rain = 0
KCR1 091244Z 11003KT 15/11 A3021 RMK A01 T01500111  RH  077%=      5-min Rain = 0
KCR1 091245Z 11003KT 15/11 A3021 RMK A01 T01500111  RH  077%=      5-min Rain = 0
KCR1 091246Z 10003KT 15/11 A3021 RMK A01 T01500112  RH  078%=      5-min Rain = 0
KCR1 091247Z 10003KT 15/11 A3021 RMK A01 T01500113  RH  078%=      5-min Rain = 0
KCR1 091248Z 10003KT 15/11 A3021 RMK A01 T01510113  RH  078%=      5-min Rain = 0
KCR1 091249Z 10003KT 15/11 A3021 RMK A01 T01510113  RH  078%=      5-min Rain = 0
KCR1 091250Z 10003KT 15/11 A3021 RMK A01 T01510113  RH  078%=      5-min Rain = 0
KCR1 091251Z 10003KT 15/11 A3021 RMK A01 T01510112  RH  077%=      5-min Rain = 0
KCR1 091252Z 10003KT 15/11 A3021 RMK A01 T01510112  RH  077%=      5-min Rain = 0
KCR1 091253Z 10003KT 15/11 A3021 RMK A01 T01520112  RH  077%=      5-min Rain = 0
KCR1 091254Z 10003KT 15/11 A3021 RMK A01 T01520112  RH  077%=      5-min Rain = 0
KCR1 091255Z 10003KT 15/11 A3021 RMK A01 T01520112  RH  077%=      5-min Rain = 0
KCR1 091256Z 10003KT 15/11 A3022 RMK A01 T01530112  RH  077%=      5-min Rain = 0
KCR1 091257Z 10003KT 15/11 A3022 RMK A01 T01530112  RH  077%=      5-min Rain = 0
KCR1 091258Z 10003KT 15/11 A3022 RMK A01 T01540112  RH  076%=      5-min Rain = 0
KCR1 091259Z 10002KT 15/11 A3022 RMK A01 T01540113  RH  076%=      5-min Rain = 0
KCR1 091300Z 09002KT 16/11 A3022 RMK A01 T01550113  RH  076%=      5-min Rain = 0
KCR1 091301Z 09002KT 16/11 A3022 RMK A01 T01560113  RH  076%=      5-min Rain = 0
KCR1 091302Z 10002KT 16/11 A3022 RMK A01 T01560113  RH  075%=      5-min Rain = 0
KCR1 091303Z 10002KT 16/11 A3022 RMK A01 T01570114  RH  075%=      5-min Rain = 0
KCR1 091304Z 10002KT 16/11 A3022 RMK A01 T01580113  RH  075%=      5-min Rain = 0
KCR1 091305Z 10002KT 16/11 A3022 RMK A01 T01580114  RH  075%=      5-min Rain = 0
KCR1 091306Z 10002KT 16/12 A3022 RMK A01 T01580115  RH  075%=      5-min Rain = 0
KCR1 091307Z 10002KT 16/12 A3022 RMK A01 T01590115  RH  075%=      5-min Rain = 0
KCR1 091308Z 11002KT 16/12 A3022 RMK A01 T01600115  RH  075%=      5-min Rain = 0
KCR1 091309Z 11002KT 16/12 A3022 RMK A01 T01600115  RH  075%=      5-min Rain = 0
KCR1 091310Z 11003KT 16/12 A3022 RMK A01 T01600116  RH  075%=      5-min Rain = 0
KCR1 091311Z 11002KT 16/12 A3022 RMK A01 T01600116  RH  075%=      5-min Rain = 0
KCR1 091312Z 10003KT 16/12 A3022 RMK A01 T01600115  RH  074%=      5-min Rain = 0
KCR1 091313Z 10003KT 16/12 A3022 RMK A01 T01610116  RH  074%=      5-min Rain = 0
KCR1 091314Z 10004KT 16/12 A3022 RMK A01 T01610115  RH  074%=      5-min Rain = 0
KCR1 091315Z 10003KT 16/12 A3022 RMK A01 T01620116  RH  074%=      5-min Rain = 0
KCR1 091316Z 11003KT 16/12 A3022 RMK A01 T01630115  RH  073%=      5-min Rain = 0
KCR1 091317Z 11003KT 16/11 A3022 RMK A01 T01630114  RH  073%=      5-min Rain = 0
KCR1 091318Z 11004KT 16/11 A3023 RMK A01 T01630113  RH  072%=      5-min Rain = 0
KCR1 091319Z 11003KT 16/11 A3023 RMK A01 T01630113  RH  072%=      5-min Rain = 0
KCR1 091320Z 12003KT 16/12 A3023 RMK A01 T01630115  RH  073%=      5-min Rain = 0
KCR1 091321Z 13003KT 16/11 A3023 RMK A01 T01640114  RH  072%=      5-min Rain = 0
KCR1 091322Z 13004KT 16/11 A3023 RMK A01 T01640114  RH  072%=      5-min Rain = 0
KCR1 091323Z 14003KT 16/11 A3023 RMK A01 T01640114  RH  072%=      5-min Rain = 0
KCR1 091324Z 13003KT 17/12 A3023 RMK A01 T01650116  RH  073%=      5-min Rain = 0
KCR1 091325Z 13003KT 17/12 A3023 RMK A01 T01660116  RH  072%=      5-min Rain = 0
KCR1 091326Z 14003KT 17/12 A3023 RMK A01 T01670117  RH  073%=      5-min Rain = 0
KCR1 091327Z 14003KT 17/12 A3023 RMK A01 T01670116  RH  072%=      5-min Rain = 0
KCR1 091328Z 14003KT 17/12 A3023 RMK A01 T01680115  RH  071%=      5-min Rain = 0
KCR1 091329Z 15003KT 17/12 A3023 RMK A01 T01680115  RH  071%=      5-min Rain = 0
KCR1 091330Z 13002KT 17/11 A3023 RMK A01 T01680114  RH  070%=      5-min Rain = 0
KCR1 091331Z 14003KT 17/12 A3023 RMK A01 T01690116  RH  071%=      5-min Rain = 0
KCR1 091332Z 13002KT 17/12 A3023 RMK A01 T01700117  RH  071%=      5-min Rain = 0
KCR1 091333Z 18002KT 17/12 A3023 RMK A01 T01710118  RH  071%=      5-min Rain = 0
KCR1 091334Z 16002KT 17/12 A3023 RMK A01 T01730118  RH  070%=      5-min Rain = 0
KCR1 091335Z 13002KT 17/12 A3023 RMK A01 T01730116  RH  069%=      5-min Rain = 0
KCR1 091336Z 15002KT 17/12 A3023 RMK A01 T01740116  RH  069%=      5-min Rain = 0
KCR1 091337Z 14003KT 17/12 A3023 RMK A01 T01740116  RH  068%=      5-min Rain = 0
KCR1 091338Z 15002KT 18/12 A3023 RMK A01 T01750115  RH  068%=      5-min Rain = 0
KCR1 091339Z 14001KT 18/12 A3023 RMK A01 T01750117  RH  069%=      5-min Rain = 0
KCR1 091340Z 15001KT 18/12 A3023 RMK A01 T01760116  RH  068%=      5-min Rain = 0
KCR1 091341Z 15002KT 18/12 A3023 RMK A01 T01770117  RH  068%=      5-min Rain = 0
KCR1 091342Z 15002KT 18/12 A3023 RMK A01 T01780118  RH  068%=      5-min Rain = 0
KCR1 091343Z 14002KT 18/12 A3023 RMK A01 T01790117  RH  067%=      5-min Rain = 0
KCR1 091344Z 14003KT 18/12 A3023 RMK A01 T01790116  RH  067%=      5-min Rain = 0
KCR1 091345Z 14003KT 18/12 A3023 RMK A01 T01800116  RH  066%=      5-min Rain = 0
KCR1 091346Z 13004KT 18/12 A3023 RMK A01 T01800116  RH  066%=      5-min Rain = 0
KCR1 091347Z 13003KT 18/12 A3023 RMK A01 T01800117  RH  067%=      5-min Rain = 0
KCR1 091348Z 14004KT 18/12 A3023 RMK A01 T01810118  RH  066%=      5-min Rain = 0
KCR1 091349Z 14004KT 18/12 A3023 RMK A01 T01810116  RH  066%=      5-min Rain = 0
KCR1 091350Z 14003KT 18/12 A3023 RMK A01 T01810118  RH  066%=      5-min Rain = 0
KCR1 091351Z 14004KT 18/12 A3023 RMK A01 T01820118  RH  066%=      5-min Rain = 0
KCR1 091352Z 14004KT 18/12 A3023 RMK A01 T01830117  RH  065%=      5-min Rain = 0
KCR1 091353Z 15004KT 18/12 A3023 RMK A01 T01830118  RH  066%=      5-min Rain = 0
KCR1 091354Z 14004KT 18/12 A3023 RMK A01 T01840119  RH  066%=      5-min Rain = 0
KCR1 091355Z 14003KT 19/12 A3023 RMK A01 T01850118  RH  065%=      5-min Rain = 0
KCR1 091356Z 14004KT 19/12 A3023 RMK A01 T01850118  RH  065%=      5-min Rain = 0
KCR1 091357Z 14004KT 19/12 A3024 RMK A01 T01860118  RH  065%=      5-min Rain = 0
KCR1 091358Z 15004KT 19/12 A3023 RMK A01 T01860118  RH  064%=      5-min Rain = 0
KCR1 091359Z 13004KT 19/12 A3023 RMK A01 T01860119  RH  065%=      5-min Rain = 0
KCR1 091400Z 13003KT 19/12 A3023 RMK A01 T01880120  RH  065%=      5-min Rain = 0
KCR1 091401Z 13004KT 19/12 A3023 RMK A01 T01880119  RH  064%=      5-min Rain = 0
KCR1 091402Z 13004KT 19/12 A3023 RMK A01 T01890119  RH  064%=      5-min Rain = 0
KCR1 091403Z 13004KT 19/12 A3023 RMK A01 T01890118  RH  063%=      5-min Rain = 0
KCR1 091404Z 13004KT 19/12 A3023 RMK A01 T01890118  RH  063%=      5-min Rain = 0
KCR1 091405Z 14004KT 19/12 A3024 RMK A01 T01890119  RH  064%=      5-min Rain = 0
KCR1 091406Z 13004KT 19/12 A3024 RMK A01 T01900121  RH  064%=      5-min Rain = 0
KCR1 091407Z 15004KT 19/12 A3024 RMK A01 T01910119  RH  063%=      5-min Rain = 0
KCR1 091408Z 16004KT 19/12 A3024 RMK A01 T01910119  RH  063%=      5-min Rain = 0
KCR1 091409Z 14004KT 19/12 A3024 RMK A01 T01920120  RH  063%=      5-min Rain = 0
KCR1 091410Z 14004KT 19/12 A3024 RMK A01 T01930120  RH  063%=      5-min Rain = 0
KCR1 091411Z 15004KT 19/12 A3024 RMK A01 T01940120  RH  062%=      5-min Rain = 0
KCR1 091412Z 15004KT 20/12 A3024 RMK A01 T01950120  RH  062%=      5-min Rain = 0
KCR1 091413Z 17005KT 20/12 A3024 RMK A01 T01960121  RH  062%=      5-min Rain = 0
KCR1 091414Z 17004KT 20/12 A3024 RMK A01 T01960119  RH  061%=      5-min Rain = 0
KCR1 091415Z 16005KT 20/12 A3024 RMK A01 T01950120  RH  062%=      5-min Rain = 0
KCR1 091416Z 17005KT 20/12 A3024 RMK A01 T01950120  RH  062%=      5-min Rain = 0
KCR1 091417Z 17005KT 20/12 A3024 RMK A01 T01950120  RH  062%=      5-min Rain = 0
KCR1 091418Z 17005KT 19/12 A3024 RMK A01 T01940120  RH  062%=      5-min Rain = 0
KCR1 091419Z 18004KT 19/12 A3024 RMK A01 T01940121  RH  062%=      5-min Rain = 0
KCR1 091420Z 17004KT 20/12 A3024 RMK A01 T01950121  RH  062%=      5-min Rain = 0
KCR1 091421Z 17004KT 20/12 A3024 RMK A01 T01960121  RH  062%=      5-min Rain = 0
KCR1 091422Z 17006KT 20/12 A3024 RMK A01 T01960121  RH  062%=      5-min Rain = 0
KCR1 091423Z 15004KT 20/12 A3024 RMK A01 T01980122  RH  061%=      5-min Rain = 0
KCR1 091424Z 16004KT 20/12 A3024 RMK A01 T01980121  RH  061%=      5-min Rain = 0
KCR1 091425Z 16004KT 20/12 A3024 RMK A01 T01980123  RH  062%=      5-min Rain = 0
KCR1 091426Z 19005KT 20/12 A3024 RMK A01 T02000124  RH  062%=      5-min Rain = 0
KCR1 091427Z 17004KT 20/12 A3024 RMK A01 T02010122  RH  060%=      5-min Rain = 0
KCR1 091428Z 17004KT 20/12 A3024 RMK A01 T02010122  RH  060%=      5-min Rain = 0
KCR1 091429Z 18004KT 20/12 A3024 RMK A01 T02020124  RH  061%=      5-min Rain = 0
KCR1 091430Z 16003KT 20/13 A3024 RMK A01 T02040126  RH  061%=      5-min Rain = 0
KCR1 091431Z 18003KT 21/12 A3024 RMK A01 T02050124  RH  059%=      5-min Rain = 0
KCR1 091432Z 18003KT 21/12 A3024 RMK A01 T02060123  RH  059%=      5-min Rain = 0
KCR1 091433Z 19003KT 21/12 A3024 RMK A01 T02060124  RH  059%=      5-min Rain = 0
KCR1 091434Z 19003KT 21/12 A3024 RMK A01 T02070122  RH  058%=      5-min Rain = 0
KCR1 091435Z 17004KT 21/12 A3024 RMK A01 T02070123  RH  059%=      5-min Rain = 0
KCR1 091436Z 17003KT 21/12 A3024 RMK A01 T02080123  RH  058%=      5-min Rain = 0
KCR1 091437Z 17004KT 21/13 A3024 RMK A01 T02090125  RH  058%=      5-min Rain = 0
KCR1 091438Z 17006KT 21/12 A3024 RMK A01 T02100124  RH  058%=      5-min Rain = 0
KCR1 091439Z 18007KT 21/12 A3024 RMK A01 T02100122  RH  057%=      5-min Rain = 0
KCR1 091440Z 19006KT 21/12 A3024 RMK A01 T02100121  RH  057%=      5-min Rain = 0
KCR1 091441Z 17006KT 21/12 A3024 RMK A01 T02100121  RH  057%=      5-min Rain = 0
KCR1 091442Z 17005KT 21/12 A3024 RMK A01 T02100122  RH  057%=      5-min Rain = 0
KCR1 091443Z 18006KT 21/12 A3024 RMK A01 T02110122  RH  057%=      5-min Rain = 0
KCR1 091444Z 17005KT 21/12 A3024 RMK A01 T02120123  RH  057%=      5-min Rain = 0
KCR1 091445Z 18006KT 21/12 A3024 RMK A01 T02120124  RH  057%=      5-min Rain = 0
KCR1 091446Z 18005KT 21/12 A3024 RMK A01 T02130123  RH  056%=      5-min Rain = 0
KCR1 091447Z 18005KT 21/12 A3024 RMK A01 T02130124  RH  057%=      5-min Rain = 0
KCR1 091448Z 17006KT 21/12 A3024 RMK A01 T02140123  RH  056%=      5-min Rain = 0
KCR1 091449Z 18006KT 22/12 A3024 RMK A01 T02150123  RH  056%=      5-min Rain = 0
KCR1 091450Z 19005KT 22/12 A3024 RMK A01 T02150123  RH  055%=      5-min Rain = 0
KCR1 091451Z 19004KT 22/12 A3024 RMK A01 T02150124  RH  056%=      5-min Rain = 0
KCR1 091452Z 18004KT 22/12 A3024 RMK A01 T02150123  RH  056%=      5-min Rain = 0
KCR1 091453Z 18006KT 22/13 A3025 RMK A01 T02150125  RH  056%=      5-min Rain = 0
KCR1 091454Z 18005KT 22/12 A3025 RMK A01 T02160123  RH  055%=      5-min Rain = 0
KCR1 091455Z 17005KT 22/12 A3025 RMK A01 T02160124  RH  056%=      5-min Rain = 0
KCR1 091456Z 18005KT 22/13 A3025 RMK A01 T02170125  RH  056%=      5-min Rain = 0
KCR1 091457Z 17004KT 22/12 A3025 RMK A01 T02180124  RH  055%=      5-min Rain = 0
KCR1 091458Z 16007KT 22/13 A3025 RMK A01 T02200127  RH  056%=      5-min Rain = 0
KCR1 091459Z 17006KT 22/13 A3025 RMK A01 T02210125  RH  054%=      5-min Rain = 0
KCR1 091500Z 17006KT 22/13 A3025 RMK A01 T02210125  RH  055%=      5-min Rain = 0
KCR1 091501Z 19005KT 22/13 A3025 RMK A01 T02210127  RH  055%=      5-min Rain = 0
KCR1 091502Z 19004KT 22/13 A3025 RMK A01 T02220127  RH  055%=      5-min Rain = 0
KCR1 091503Z 19005KT 22/13 A3025 RMK A01 T02230127  RH  054%=      5-min Rain = 0
KCR1 091504Z 17006KT 22/13 A3025 RMK A01 T02230125  RH  054%=      5-min Rain = 0
KCR1 091505Z 18005KT 22/13 A3025 RMK A01 T02220126  RH  054%=      5-min Rain = 0
KCR1 091506Z 19006KT 22/13 A3025 RMK A01 T02230127  RH  055%=      5-min Rain = 0
KCR1 091507Z 17007KT 23/13 A3025 RMK A01 T02250128  RH  054%=      5-min Rain = 0
KCR1 091508Z 18006KT 23/13 A3025 RMK A01 T02260126  RH  053%=      5-min Rain = 0
KCR1 091509Z 17006KT 23/13 A3025 RMK A01 T02270129  RH  054%=      5-min Rain = 0
KCR1 091510Z 18006KT 23/13 A3025 RMK A01 T02280127  RH  053%=      5-min Rain = 0
KCR1 091511Z 18005KT 23/13 A3025 RMK A01 T02270128  RH  053%=      5-min Rain = 0
KCR1 091512Z 17010KT 23/13 A3025 RMK A01 T02290128  RH  053%=      5-min Rain = 0
KCR1 091513Z 17008KT 23/13 A3025 RMK A01 T02300126  RH  052%=      5-min Rain = 0
KCR1 091514Z 17007KT 23/13 A3025 RMK A01 T02300127  RH  052%=      5-min Rain = 0
KCR1 091515Z 15008KT 23/13 A3025 RMK A01 T02310127  RH  052%=      5-min Rain = 0
KCR1 091516Z 16010KT 23/13 A3025 RMK A01 T02320126  RH  051%=      5-min Rain = 0
KCR1 091517Z 18009KT 23/13 A3025 RMK A01 T02340127  RH  051%=      5-min Rain = 0
KCR1 091518Z 18009KT 23/13 A3025 RMK A01 T02340127  RH  051%=      5-min Rain = 0
KCR1 091519Z 19008KT 24/12 A3025 RMK A01 T02350124  RH  050%=      5-min Rain = 0
KCR1 091520Z 17007KT 24/13 A3025 RMK A01 T02350126  RH  050%=      5-min Rain = 0
KCR1 091521Z 17007KT 24/13 A3025 RMK A01 T02350128  RH  051%=      5-min Rain = 0
KCR1 091522Z 17007KT 24/13 A3025 RMK A01 T02370129  RH  051%=      5-min Rain = 0
KCR1 091523Z 17008KT 24/13 A3025 RMK A01 T02380129  RH  050%=      5-min Rain = 0
KCR1 091524Z 16008KT 24/13 A3025 RMK A01 T02390129  RH  050%=      5-min Rain = 0
KCR1 091525Z 17010KT 24/13 A3025 RMK A01 T02410129  RH  050%=      5-min Rain = 0
KCR1 091526Z 18008KT 24/13 A3025 RMK A01 T02390126  RH  049%=      5-min Rain = 0
KCR1 091527Z 17009KT 24/13 A3025 RMK A01 T02380128  RH  050%=      5-min Rain = 0
KCR1 091528Z 17009KT 24/13 A3025 RMK A01 T02390127  RH  050%=      5-min Rain = 0
KCR1 091529Z 16011KT 24/13 A3025 RMK A01 T02390127  RH  049%=      5-min Rain = 0
KCR1 091530Z 16008KT 24/13 A3025 RMK A01 T02380126  RH  049%=      5-min Rain = 0
KCR1 091531Z 17009KT 24/13 A3025 RMK A01 T02370127  RH  050%=      5-min Rain = 0
KCR1 091532Z 18008KT 24/13 A3025 RMK A01 T02380126  RH  049%=      5-min Rain = 0
KCR1 091533Z 18007KT 24/13 A3025 RMK A01 T02380126  RH  049%=      5-min Rain = 0
KCR1 091534Z 16010KT 24/13 A3025 RMK A01 T02370126  RH  050%=      5-min Rain = 0
KCR1 091535Z 18008KT 24/13 A3025 RMK A01 T02380126  RH  049%=      5-min Rain = 0
KCR1 091536Z 18011KT 24/13 A3025 RMK A01 T02400128  RH  049%=      5-min Rain = 0
KCR1 091537Z 17009KT 24/13 A3025 RMK A01 T02420125  RH  048%=      5-min Rain = 0
KCR1 091538Z 17008KT 24/13 A3025 RMK A01 T02410126  RH  049%=      5-min Rain = 0
KCR1 091539Z 16010KT 24/13 A3025 RMK A01 T02410128  RH  049%=      5-min Rain = 0
KCR1 091540Z 15008KT 24/13 A3025 RMK A01 T02420128  RH  049%=      5-min Rain = 0
KCR1 091541Z 16008KT 24/13 A3025 RMK A01 T02430130  RH  049%=      5-min Rain = 0
KCR1 091542Z 17009KT 24/13 A3025 RMK A01 T02440126  RH  048%=      5-min Rain = 0
KCR1 091543Z 18011KT 24/13 A3025 RMK A01 T02440127  RH  048%=      5-min Rain = 0
KCR1 091544Z 18009KT 25/13 A3025 RMK A01 T02450127  RH  048%=      5-min Rain = 0
KCR1 091545Z 17007KT 25/12 A3025 RMK A01 T02450123  RH  047%=      5-min Rain = 0
KCR1 091546Z 19010KT 24/12 A3025 RMK A01 T02420124  RH  047%=      5-min Rain = 0
KCR1 091547Z 19007KT 25/13 A3025 RMK A01 T02460129  RH  048%=      5-min Rain = 0
KCR1 091548Z 20008KT 25/13 A3025 RMK A01 T02500127  RH  046%=      5-min Rain = 0
KCR1 091549Z 20009KT 25/13 A3025 RMK A01 T02500126  RH  046%=      5-min Rain = 0
KCR1 091550Z 19006KT 25/12 A3025 RMK A01 T02480124  RH  046%=      5-min Rain = 0
KCR1 091551Z 16008G14KT 25/13 A3025 RMK A01 T02480130  RH  048%=      5-min Rain = 0
KCR1 091552Z 16011KT 25/13 A3025 RMK A01 T02510128  RH  046%=      5-min Rain = 0
KCR1 091553Z 16010KT 25/13 A3025 RMK A01 T02500125  RH  046%=      5-min Rain = 0
KCR1 091554Z 15010KT 25/13 A3025 RMK A01 T02480125  RH  046%=      5-min Rain = 0
KCR1 091555Z 15009KT 25/13 A3025 RMK A01 T02480125  RH  046%=      5-min Rain = 0
KCR1 091556Z 16009KT 25/13 A3025 RMK A01 T02490126  RH  046%=      5-min Rain = 0
KCR1 091557Z 16011KT 25/13 A3025 RMK A01 T02500126  RH  046%=      5-min Rain = 0
KCR1 091558Z 16010KT 25/13 A3025 RMK A01 T02500126  RH  046%=      5-min Rain = 0
KCR1 091559Z 17010KT 25/13 A3025 RMK A01 T02500125  RH  046%=      5-min Rain = 0
KCR1 091600Z 18011KT 25/12 A3025 RMK A01 T02480124  RH  046%=      5-min Rain = 0
KCR1 091601Z 18009KT 25/12 A3025 RMK A01 T02480123  RH  046%=      5-min Rain = 0
KCR1 091602Z 18011KT 25/13 A3025 RMK A01 T02480125  RH  046%=      5-min Rain = 0
KCR1 091603Z 17010KT 25/12 A3025 RMK A01 T02500124  RH  045%=      5-min Rain = 0
KCR1 091604Z 17008KT 25/12 A3025 RMK A01 T02490123  RH  045%=      5-min Rain = 0
KCR1 091605Z 19010KT 25/13 A3024 RMK A01 T02490125  RH  046%=      5-min Rain = 0
KCR1 091606Z 18010KT 25/13 A3024 RMK A01 T02500125  RH  046%=      5-min Rain = 0
KCR1 091607Z 17009KT 25/12 A3024 RMK A01 T02510124  RH  045%=      5-min Rain = 0
KCR1 091608Z 17006KT 25/12 A3024 RMK A01 T02500124  RH  045%=      5-min Rain = 0
KCR1 091609Z 16008KT 25/13 A3024 RMK A01 T02500126  RH  046%=      5-min Rain = 0
KCR1 091610Z 17008KT 25/13 A3024 RMK A01 T02500126  RH  046%=      5-min Rain = 0
KCR1 091611Z 16010KT 25/13 A3024 RMK A01 T02520128  RH  046%=      5-min Rain = 0
KCR1 091612Z 16009KT 25/12 A3024 RMK A01 T02520124  RH  045%=      5-min Rain = 0
KCR1 091613Z 16008KT 25/13 A3024 RMK A01 T02510125  RH  045%=      5-min Rain = 0
KCR1 091614Z 16009KT 25/12 A3024 RMK A01 T02510124  RH  045%=      5-min Rain = 0
KCR1 091615Z 17009KT 25/12 A3024 RMK A01 T02510124  RH  045%=      5-min Rain = 0
KCR1 091616Z 18009KT 25/12 A3024 RMK A01 T02510124  RH  045%=      5-min Rain = 0
KCR1 091617Z 18008KT 25/12 A3024 RMK A01 T02530124  RH  044%=      5-min Rain = 0
KCR1 091618Z 18007KT 25/12 A3024 RMK A01 T02530122  RH  044%=      5-min Rain = 0
KCR1 091619Z 19009KT 25/13 A3024 RMK A01 T02540127  RH  045%=      5-min Rain = 0
KCR1 091620Z 19009KT 25/12 A3024 RMK A01 T02540123  RH  044%=      5-min Rain = 0
KCR1 091621Z 19007KT 25/12 A3024 RMK A01 T02520124  RH  045%=      5-min Rain = 0
KCR1 091622Z 17007KT 25/13 A3024 RMK A01 T02540128  RH  045%=      5-min Rain = 0
KCR1 091623Z 18010KT 26/13 A3024 RMK A01 T02570125  RH  044%=      5-min Rain = 0
KCR1 091624Z 18010KT 26/12 A3024 RMK A01 T02570124  RH  044%=      5-min Rain = 0
KCR1 091625Z 19009KT 26/12 A3024 RMK A01 T02550122  RH  044%=      5-min Rain = 0
KCR1 091626Z 19008KT 25/12 A3024 RMK A01 T02540124  RH  045%=      5-min Rain = 0
KCR1 091627Z 19009KT 26/13 A3024 RMK A01 T02570126  RH  044%=      5-min Rain = 0
KCR1 091628Z 18009KT 26/12 A3024 RMK A01 T02580124  RH  044%=      5-min Rain = 0
KCR1 091629Z 17008G13KT 26/12 A3024 RMK A01 T02570124  RH  044%=      5-min Rain = 0
KCR1 091630Z 16009KT 26/12 A3024 RMK A01 T02560123  RH  044%=      5-min Rain = 0
KCR1 091631Z 17008KT 26/12 A3024 RMK A01 T02550123  RH  044%=      5-min Rain = 0
KCR1 091632Z 18007KT 25/12 A3024 RMK A01 T02540124  RH  044%=      5-min Rain = 0
KCR1 091633Z 18008KT 26/13 A3024 RMK A01 T02560126  RH  044%=      5-min Rain = 0
KCR1 091634Z 17007KT 26/13 A3024 RMK A01 T02590126  RH  044%=      5-min Rain = 0
KCR1 091635Z 18011KT 26/13 A3024 RMK A01 T02620128  RH  044%=      5-min Rain = 0
KCR1 091636Z 19009KT 26/12 A3024 RMK A01 T02620124  RH  042%=      5-min Rain = 0
KCR1 091637Z 18007KT 26/13 A3024 RMK A01 T02610125  RH  043%=      5-min Rain = 0
KCR1 091638Z 16007KT 26/12 A3024 RMK A01 T02610124  RH  043%=      5-min Rain = 0
KCR1 091639Z 16007KT 26/13 A3024 RMK A01 T02600126  RH  043%=      5-min Rain = 0
KCR1 091640Z 19006KT 26/12 A3024 RMK A01 T02600124  RH  043%=      5-min Rain = 0
KCR1 091641Z 20008KT 26/12 A3024 RMK A01 T02610124  RH  042%=      5-min Rain = 0
KCR1 091642Z 17008KT 26/13 A3024 RMK A01 T02620125  RH  043%=      5-min Rain = 0
KCR1 091643Z 17007KT 26/13 A3024 RMK A01 T02620127  RH  043%=      5-min Rain = 0
KCR1 091644Z 17008KT 26/13 A3024 RMK A01 T02630126  RH  043%=      5-min Rain = 0
KCR1 091645Z 16010KT 26/13 A3024 RMK A01 T02620125  RH  043%=      5-min Rain = 0
KCR1 091646Z 16009KT 26/12 A3024 RMK A01 T02610123  RH  042%=      5-min Rain = 0
KCR1 091647Z 15009KT 26/12 A3024 RMK A01 T02580122  RH  043%=      5-min Rain = 0
KCR1 091648Z 16008KT 26/12 A3024 RMK A01 T02570123  RH  043%=      5-min Rain = 0
KCR1 091649Z 15008KT 26/12 A3024 RMK A01 T02580120  RH  042%=      5-min Rain = 0
KCR1 091650Z 13007KT 26/12 A3024 RMK A01 T02590122  RH  042%=      5-min Rain = 0
KCR1 091651Z 15005KT 26/13 A3024 RMK A01 T02600126  RH  043%=      5-min Rain = 0
KCR1 091652Z 18006KT 26/13 A3024 RMK A01 T02630127  RH  043%=      5-min Rain = 0
KCR1 091653Z 20007KT 27/13 A3024 RMK A01 T02650125  RH  042%=      5-min Rain = 0
KCR1 091654Z 18008KT 27/12 A3024 RMK A01 T02650124  RH  042%=      5-min Rain = 0
KCR1 091655Z 17009KT 27/13 A3024 RMK A01 T02650128  RH  043%=      5-min Rain = 0
KCR1 091656Z 14007KT 27/13 A3024 RMK A01 T02660126  RH  042%=      5-min Rain = 0
KCR1 091657Z 14005KT 26/13 A3024 RMK A01 T02640126  RH  043%=      5-min Rain = 0
KCR1 091658Z 17009KT 26/13 A3024 RMK A01 T02630127  RH  043%=      5-min Rain = 0
KCR1 091659Z 17006KT 26/12 A3024 RMK A01 T02620124  RH  042%=      5-min Rain = 0
KCR1 091700Z 18007KT 26/13 A3024 RMK A01 T02610126  RH  043%=      5-min Rain = 0
KCR1 091701Z 17011KT 26/12 A3023 RMK A01 T02630124  RH  042%=      5-min Rain = 0
KCR1 091702Z 18009KT 26/12 A3023 RMK A01 T02630124  RH  042%=      5-min Rain = 0
KCR1 091703Z 17007KT 26/12 A3023 RMK A01 T02620120  RH  041%=      5-min Rain = 0
KCR1 091704Z 17007KT 26/12 A3023 RMK A01 T02600122  RH  042%=      5-min Rain = 0
KCR1 091705Z 18008KT 26/12 A3023 RMK A01 T02610124  RH  043%=      5-min Rain = 0
KCR1 091706Z 19005KT 26/12 A3023 RMK A01 T02610121  RH  042%=      5-min Rain = 0
KCR1 091707Z 17004KT 26/12 A3023 RMK A01 T02610122  RH  042%=      5-min Rain = 0
KCR1 091708Z 14006KT 26/12 A3023 RMK A01 T02610124  RH  042%=      5-min Rain = 0
KCR1 091709Z 15008KT 26/13 A3023 RMK A01 T02640125  RH  042%=      5-min Rain = 0
KCR1 091710Z 13008KT 27/13 A3023 RMK A01 T02670127  RH  042%=      5-min Rain = 0
KCR1 091711Z 15008KT 27/13 A3023 RMK A01 T02690126  RH  041%=      5-min Rain = 0
KCR1 091712Z 16006KT 27/12 A3023 RMK A01 T02690121  RH  040%=      5-min Rain = 0
KCR1 091713Z 15007KT 27/13 A3023 RMK A01 T02680125  RH  041%=      5-min Rain = 0
KCR1 091714Z 15008KT 27/12 A3023 RMK A01 T02680123  RH  040%=      5-min Rain = 0
KCR1 091715Z 15007KT 27/12 A3023 RMK A01 T02670122  RH  041%=      5-min Rain = 0
KCR1 091716Z 16005KT 27/12 A3023 RMK A01 T02660122  RH  041%=      5-min Rain = 0
KCR1 091717Z 18006KT 27/12 A3023 RMK A01 T02660122  RH  041%=      5-min Rain = 0
KCR1 091718Z 15007KT 27/13 A3023 RMK A01 T02660126  RH  042%=      5-min Rain = 0
KCR1 091719Z 14007KT 27/12 A3023 RMK A01 T02680124  RH  041%=      5-min Rain = 0
KCR1 091720Z 18007KT 27/13 A3023 RMK A01 T02680125  RH  041%=      5-min Rain = 0
KCR1 091721Z 21008KT 27/12 A3023 RMK A01 T02680123  RH  041%=      5-min Rain = 0
KCR1 091722Z 20005KT 27/12 A3023 RMK A01 T02680121  RH  040%=      5-min Rain = 0
KCR1 091723Z 17008G13KT 27/12 A3023 RMK A01 T02660123  RH  041%=      5-min Rain = 0
KCR1 091724Z 15009KT 27/13 A3023 RMK A01 T02680125  RH  041%=      5-min Rain = 0
KCR1 091725Z 17010KT 27/12 A3023 RMK A01 T02700124  RH  040%=      5-min Rain = 0
KCR1 091726Z 17008KT 27/12 A3023 RMK A01 T02700122  RH  040%=      5-min Rain = 0
KCR1 091727Z 16007KT 27/12 A3023 RMK A01 T02680122  RH  040%=      5-min Rain = 0
KCR1 091728Z 15005KT 27/12 A3023 RMK A01 T02670122  RH  041%=      5-min Rain = 0
KCR1 091729Z 17004KT 27/13 A3023 RMK A01 T02670125  RH  041%=      5-min Rain = 0
KCR1 091730Z 13006KT 27/12 A3023 RMK A01 T02680123  RH  041%=      5-min Rain = 0
KCR1 091731Z 16004KT 27/12 A3023 RMK A01 T02680123  RH  041%=      5-min Rain = 0
KCR1 091732Z 17006KT 27/12 A3023 RMK A01 T02670124  RH  041%=      5-min Rain = 0
KCR1 091733Z 17007KT 27/12 A3022 RMK A01 T02670124  RH  041%=      5-min Rain = 0
KCR1 091734Z 15010KT 27/12 A3023 RMK A01 T02680123  RH  040%=      5-min Rain = 0
KCR1 091735Z 14009KT 27/12 A3022 RMK A01 T02700122  RH  040%=      5-min Rain = 0
KCR1 091736Z 16008KT 27/12 A3022 RMK A01 T02690121  RH  040%=      5-min Rain = 0
KCR1 091737Z 14007KT 27/13 A3022 RMK A01 T02700127  RH  041%=      5-min Rain = 0
KCR1 091738Z 14010KT 28/13 A3022 RMK A01 T02750126  RH  040%=      5-min Rain = 0
KCR1 091739Z 14007KT 28/12 A3022 RMK A01 T02750123  RH  039%=      5-min Rain = 0
KCR1 091740Z 15008KT 28/13 A3022 RMK A01 T02760126  RH  040%=      5-min Rain = 0
KCR1 091741Z 15008KT 28/12 A3022 RMK A01 T02770123  RH  039%=      5-min Rain = 0
KCR1 091742Z 16006KT 28/12 A3022 RMK A01 T02750119  RH  038%=      5-min Rain = 0
KCR1 091743Z 16006KT 27/12 A3022 RMK A01 T02720120  RH  039%=      5-min Rain = 0
KCR1 091744Z 18004KT 27/12 A3022 RMK A01 T02700116  RH  038%=      5-min Rain = 0
KCR1 091745Z 15006G12KT 27/12 A3022 RMK A01 T02690119  RH  039%=      5-min Rain = 0
KCR1 091746Z 15012KT 27/12 A3022 RMK A01 T02720124  RH  040%=      5-min Rain = 0
KCR1 091747Z 17011KT 27/12 A3022 RMK A01 T02740121  RH  039%=      5-min Rain = 0
KCR1 091748Z 17008KT 27/12 A3022 RMK A01 T02740122  RH  039%=      5-min Rain = 0
KCR1 091749Z 16009KT 27/12 A3022 RMK A01 T02740122  RH  039%=      5-min Rain = 0
KCR1 091750Z 17011KT 27/12 A3022 RMK A01 T02740123  RH  039%=      5-min Rain = 0
KCR1 091751Z 16010KT 28/12 A3022 RMK A01 T02750120  RH  038%=      5-min Rain = 0
KCR1 091752Z 15008KT 27/12 A3022 RMK A01 T02740119  RH  038%=      5-min Rain = 0
KCR1 091753Z 14007KT 27/12 A3022 RMK A01 T02720117  RH  038%=      5-min Rain = 0
KCR1 091754Z 15008KT 27/12 A3022 RMK A01 T02700119  RH  039%=      5-min Rain = 0
KCR1 091755Z 16006KT 27/13 A3022 RMK A01 T02730125  RH  040%=      5-min Rain = 0
KCR1 091756Z 15005KT 28/13 A3022 RMK A01 T02780126  RH  039%=      5-min Rain = 0
KCR1 091757Z 15005G11KT 28/12 A3022 RMK A01 T02770121  RH  038%=      5-min Rain = 0
KCR1 091758Z 16009KT 28/13 A3022 RMK A01 T02760126  RH  039%=      5-min Rain = 0
KCR1 091759Z 16006KT 28/12 A3022 RMK A01 T02760121  RH  038%=      5-min Rain = 0
KCR1 091800Z 14005KT 27/12 A3022 RMK A01 T02740120  RH  038%=      5-min Rain = 0
KCR1 091801Z 12001KT 27/12 A3022 RMK A01 T02710117  RH  038%=      5-min Rain = 0
KCR1 091802Z 16001KT 27/12 A3022 RMK A01 T02700118  RH  039%=      5-min Rain = 0
KCR1 091803Z 15004KT 27/12 A3022 RMK A01 T02710124  RH  040%=      5-min Rain = 0
KCR1 091804Z 14007KT 27/13 A3022 RMK A01 T02740125  RH  040%=      5-min Rain = 0
KCR1 091805Z 13007KT 28/12 A3022 RMK A01 T02760122  RH  038%=      5-min Rain = 0
KCR1 091806Z 15006KT 27/12 A3021 RMK A01 T02740118  RH  038%=      5-min Rain = 0
KCR1 091807Z 16007KT 27/12 A3021 RMK A01 T02730120  RH  039%=      5-min Rain = 0
KCR1 091808Z 16008KT 28/12 A3021 RMK A01 T02750122  RH  039%=      5-min Rain = 0
KCR1 091809Z 18010KT 28/12 A3021 RMK A01 T02750122  RH  039%=      5-min Rain = 0
KCR1 091810Z 20010KT 28/12 A3021 RMK A01 T02760120  RH  038%=      5-min Rain = 0
KCR1 091811Z 20007KT 28/12 A3021 RMK A01 T02760118  RH  038%=      5-min Rain = 0
KCR1 091812Z 18006KT 28/12 A3021 RMK A01 T02750121  RH  039%=      5-min Rain = 0
KCR1 091813Z 20007KT 28/12 A3021 RMK A01 T02770121  RH  038%=      5-min Rain = 0
KCR1 091814Z 18006KT 28/12 A3021 RMK A01 T02790119  RH  037%=      5-min Rain = 0
KCR1 091815Z 13006KT 28/13 A3021 RMK A01 T02800125  RH  038%=      5-min Rain = 0
KCR1 091816Z 15004KT 28/12 A3021 RMK A01 T02810119  RH  037%=      5-min Rain = 0
KCR1 091817Z 21003KT 28/12 A3021 RMK A01 T02800119  RH  037%=      5-min Rain = 0
KCR1 091818Z 17004KT 28/12 A3021 RMK A01 T02800119  RH  037%=      5-min Rain = 0
KCR1 091819Z 14007KT 28/12 A3021 RMK A01 T02820121  RH  037%=      5-min Rain = 0
KCR1 091820Z 13006KT 28/12 A3021 RMK A01 T02810120  RH  037%=      5-min Rain = 0
KCR1 091821Z 12008KT 28/12 A3021 RMK A01 T02800122  RH  037%=      5-min Rain = 0
KCR1 091822Z 11010KT 28/12 A3021 RMK A01 T02810123  RH  038%=      5-min Rain = 0
KCR1 091823Z 09006KT 28/12 A3021 RMK A01 T02810120  RH  037%=      5-min Rain = 0
KCR1 091824Z 11007KT 28/12 A3021 RMK A01 T02790123  RH  038%=      5-min Rain = 0
KCR1 091825Z 15010KT 28/12 A3021 RMK A01 T02790119  RH  037%=      5-min Rain = 0
KCR1 091826Z 18007KT 28/12 A3021 RMK A01 T02780119  RH  037%=      5-min Rain = 0
KCR1 091827Z 21004KT 28/12 A3021 RMK A01 T02760117  RH  037%=      5-min Rain = 0
KCR1 091828Z 17005KT 28/12 A3021 RMK A01 T02760117  RH  037%=      5-min Rain = 0
KCR1 091829Z 14007KT 28/12 A302 RMK A01 T02760119  RH  038%=      5-min Rain = 0
KCR1 091830Z 15009KT 28/12 A302 RMK A01 T02760119  RH  038%=      5-min Rain = 0
KCR1 091831Z 16008KT 28/12 A302 RMK A01 T02800122  RH  038%=      5-min Rain = 0
KCR1 091832Z 14009KT 28/12 A302 RMK A01 T02820120  RH  036%=      5-min Rain = 0
KCR1 091833Z 14006KT 28/12 A302 RMK A01 T02820119  RH  037%=      5-min Rain = 0
KCR1 091834Z 16007KT 28/12 A302 RMK A01 T02810122  RH  037%=      5-min Rain = 0
KCR1 091835Z 17010KT 28/12 A302 RMK A01 T02830120  RH  037%=      5-min Rain = 0
KCR1 091836Z 15011KT 28/12 A302 RMK A01 T02830117  RH  036%=      5-min Rain = 0
KCR1 091837Z 15010KT 28/12 A302 RMK A01 T02830115  RH  035%=      5-min Rain = 0
KCR1 091838Z 16007KT 28/11 A302 RMK A01 T02790111  RH  035%=      5-min Rain = 0
KCR1 091839Z 17007KT 28/12 A302 RMK A01 T02770115  RH  037%=      5-min Rain = 0
KCR1 091840Z 15005KT 28/11 A302 RMK A01 T02790113  RH  036%=      5-min Rain = 0
KCR1 091841Z 16004KT 28/11 A302 RMK A01 T02790112  RH  035%=      5-min Rain = 0
KCR1 091842Z 18002KT 28/11 A302 RMK A01 T02770111  RH  035%=      5-min Rain = 0
KCR1 091843Z 20005KT 28/11 A302 RMK A01 T02780114  RH  036%=      5-min Rain = 0
KCR1 091844Z 16009G14KT 28/11 A302 RMK A01 T02800114  RH  035%=      5-min Rain = 0
KCR1 091845Z 16008KT 28/12 A302 RMK A01 T02810117  RH  036%=      5-min Rain = 0
KCR1 091846Z 19005KT 28/12 A302 RMK A01 T02800115  RH  036%=      5-min Rain = 0
KCR1 091847Z 19005KT 28/12 A302 RMK A01 T02800115  RH  036%=      5-min Rain = 0
KCR1 091848Z 15007KT 28/12 A302 RMK A01 T02800117  RH  036%=      5-min Rain = 0
KCR1 091849Z 16007KT 28/12 A302 RMK A01 T02800119  RH  037%=      5-min Rain = 0
KCR1 091850Z 17006G11KT 28/12 A302 RMK A01 T02810120  RH  037%=      5-min Rain = 0
KCR1 091851Z 16003KT 28/12 A302 RMK A01 T02810116  RH  036%=      5-min Rain = 0
KCR1 091852Z 14008KT 28/12 A302 RMK A01 T02810123  RH  038%=      5-min Rain = 0
KCR1 091853Z 14006KT 28/12 A302 RMK A01 T02840121  RH  036%=      5-min Rain = 0
KCR1 091854Z 14006KT 29/12 A302 RMK A01 T02850122  RH  036%=      5-min Rain = 0
KCR1 091855Z 18007KT 29/12 A302 RMK A01 T02860115  RH  035%=      5-min Rain = 0
KCR1 091856Z 21005KT 28/12 A302 RMK A01 T02840115  RH  035%=      5-min Rain = 0
KCR1 091857Z 18004KT 29/12 A302 RMK A01 T02860116  RH  035%=      5-min Rain = 0
KCR1 091858Z 15010KT 29/12 A3019 RMK A01 T02860117  RH  035%=      5-min Rain = 0
KCR1 091859Z 15010KT 29/12 A3019 RMK A01 T02880115  RH  034%=      5-min Rain = 0
KCR1 091900Z 15010KT 29/11 A3019 RMK A01 T02860113  RH  034%=      5-min Rain = 0
KCR1 091901Z 16008KT 28/12 A3019 RMK A01 T02840115  RH  035%=      5-min Rain = 0
KCR1 091902Z 18007KT 28/11 A3019 RMK A01 T02840113  RH  034%=      5-min Rain = 0
KCR1 091903Z 20005KT 28/11 A3019 RMK A01 T02840110  RH  034%=      5-min Rain = 0
KCR1 091904Z 18005KT 28/11 A3019 RMK A01 T02830106  RH  033%=      5-min Rain = 0
KCR1 091905Z 16008KT 28/11 A3019 RMK A01 T02830112  RH  034%=      5-min Rain = 0
KCR1 091906Z 17011KT 29/11 A3019 RMK A01 T02850114  RH  034%=      5-min Rain = 0
KCR1 091907Z 15010KT 29/12 A3019 RMK A01 T02850116  RH  035%=      5-min Rain = 0
KCR1 091908Z 17005KT 28/11 A3019 RMK A01 T02830112  RH  035%=      5-min Rain = 0
KCR1 091909Z 19003G8KT 28/11 A3019 RMK A01 T02810110  RH  034%=      5-min Rain = 0
KCR1 091910Z 19003KT 28/12 A3019 RMK A01 T02820116  RH  036%=      5-min Rain = 0
KCR1 091911Z 13008KT 28/12 A3019 RMK A01 T02830116  RH  036%=      5-min Rain = 0
KCR1 091912Z 14006KT 28/11 A3019 RMK A01 T02830114  RH  035%=      5-min Rain = 0
KCR1 091913Z 14006KT 28/11 A3019 RMK A01 T02820114  RH  035%=      5-min Rain = 0
KCR1 091914Z 14007G12KT 28/12 A3019 RMK A01 T02820115  RH  035%=      5-min Rain = 0
KCR1 091915Z 15012KT 29/12 A3019 RMK A01 T02850118  RH  036%=      5-min Rain = 0
KCR1 091916Z 14011KT 29/12 A3019 RMK A01 T02880116  RH  034%=      5-min Rain = 0
KCR1 091917Z 14008KT 29/11 A3019 RMK A01 T02860111  RH  034%=      5-min Rain = 0
KCR1 091918Z 15007KT 28/12 A3019 RMK A01 T02840115  RH  035%=      5-min Rain = 0
KCR1 091919Z 17007KT 29/12 A3018 RMK A01 T02860115  RH  035%=      5-min Rain = 0
KCR1 091920Z 17007KT 29/12 A3018 RMK A01 T02860115  RH  035%=      5-min Rain = 0
KCR1 091921Z 15007KT 29/12 A3018 RMK A01 T02870116  RH  035%=      5-min Rain = 0
KCR1 091922Z 16006KT 29/11 A3018 RMK A01 T02860114  RH  034%=      5-min Rain = 0
KCR1 091923Z 17009KT 29/12 A3018 RMK A01 T02850115  RH  035%=      5-min Rain = 0
KCR1 091924Z 17007KT 28/12 A3018 RMK A01 T02830115  RH  035%=      5-min Rain = 0
KCR1 091925Z 14006G12KT 28/12 A3018 RMK A01 T02820115  RH  035%=      5-min Rain = 0
KCR1 091926Z 14012KT 28/11 A3018 RMK A01 T02830114  RH  035%=      5-min Rain = 0
KCR1 091927Z 14011KT 29/12 A3018 RMK A01 T02870115  RH  034%=      5-min Rain = 0
KCR1 091928Z 14008KT 29/11 A3018 RMK A01 T02870111  RH  034%=      5-min Rain = 0
KCR1 091929Z 14005KT 29/11 A3018 RMK A01 T02850112  RH  034%=      5-min Rain = 0
KCR1 091930Z 12007KT 29/12 A3018 RMK A01 T02850115  RH  035%=      5-min Rain = 0
KCR1 091931Z 13012KT 29/12 A3018 RMK A01 T02900118  RH  035%=      5-min Rain = 0
KCR1 091932Z 12011KT 29/11 A3018 RMK A01 T02940112  RH  032%=      5-min Rain = 0
KCR1 091933Z 13010KT 29/11 A3018 RMK A01 T02920111  RH  033%=      5-min Rain = 0
KCR1 091934Z 12012KT 29/11 A3018 RMK A01 T02900113  RH  033%=      5-min Rain = 0
KCR1 091935Z 13010KT 29/11 A3018 RMK A01 T02890111  RH  033%=      5-min Rain = 0
KCR1 091936Z 15008KT 29/11 A3018 RMK A01 T02870112  RH  034%=      5-min Rain = 0
KCR1 091937Z 13005KT 29/11 A3018 RMK A01 T02850109  RH  033%=      5-min Rain = 0
KCR1 091938Z 13004KT 29/11 A3018 RMK A01 T02850114  RH  035%=      5-min Rain = 0
KCR1 091939Z 12004KT 29/11 A3018 RMK A01 T02870110  RH  033%=      5-min Rain = 0
KCR1 091940Z 13004KT 29/12 A3018 RMK A01 T02870115  RH  035%=      5-min Rain = 0
KCR1 091941Z 15007KT 29/12 A3018 RMK A01 T02890118  RH  035%=      5-min Rain = 0
KCR1 091942Z 16011KT 29/12 A3017 RMK A01 T02920119  RH  034%=      5-min Rain = 0
KCR1 091943Z 16006G11KT 29/11 A3017 RMK A01 T02920113  RH  033%=      5-min Rain = 0
KCR1 091944Z 15005KT 29/11 A3017 RMK A01 T02880113  RH  034%=      5-min Rain = 0
KCR1 091945Z 15011KT 29/11 A3017 RMK A01 T02870113  RH  034%=      5-min Rain = 0
KCR1 091946Z 15009KT 29/11 A3017 RMK A01 T02870114  RH  034%=      5-min Rain = 0
KCR1 091947Z 17011KT 29/12 A3017 RMK A01 T02880116  RH  034%=      5-min Rain = 0
KCR1 091948Z 17010KT 29/12 A3017 RMK A01 T02910117  RH  034%=      5-min Rain = 0
KCR1 091949Z 16007KT 29/11 A3017 RMK A01 T02910112  RH  033%=      5-min Rain = 0
KCR1 091950Z 15007KT 29/11 A3017 RMK A01 T02880113  RH  034%=      5-min Rain = 0
KCR1 091951Z 15004KT 29/11 A3017 RMK A01 T02870112  RH  034%=      5-min Rain = 0
KCR1 091952Z 15008KT 29/12 A3017 RMK A01 T02880115  RH  034%=      5-min Rain = 0
KCR1 091953Z 14009KT 29/11 A3017 RMK A01 T02900113  RH  033%=      5-min Rain = 0
KCR1 091954Z 16008G14KT 29/11 A3017 RMK A01 T02910113  RH  033%=      5-min Rain = 0
KCR1 091955Z 16012KT 29/11 A3017 RMK A01 T02910113  RH  033%=      5-min Rain = 0
KCR1 091956Z 16009KT 29/11 A3017 RMK A01 T02910114  RH  033%=      5-min Rain = 0
KCR1 091957Z 17008KT 29/11 A3017 RMK A01 T02940114  RH  033%=      5-min Rain = 0
KCR1 091958Z 16006KT 29/11 A3017 RMK A01 T02920111  RH  032%=      5-min Rain = 0
KCR1 091959Z 16006KT 29/11 A3017 RMK A01 T02910112  RH  033%=      5-min Rain = 0
KCR1 092000Z 14007KT 29/11 A3017 RMK A01 T02910111  RH  033%=      5-min Rain = 0
KCR1 092001Z 12008KT 29/11 A3017 RMK A01 T02900113  RH  033%=      5-min Rain = 0
KCR1 092002Z 10007KT 29/11 A3017 RMK A01 T02920112  RH  033%=      5-min Rain = 0
KCR1 092003Z 09007G13KT 29/11 A3017 RMK A01 T02920114  RH  033%=      5-min Rain = 0
KCR1 092004Z 16008G13KT 29/11 A3017 RMK A01 T02930112  RH  033%=      5-min Rain = 0
KCR1 092005Z 15009KT 29/11 A3017 RMK A01 T02930114  RH  033%=      5-min Rain = 0
KCR1 092006Z 14011KT 29/11 A3017 RMK A01 T02940113  RH  033%=      5-min Rain = 0
KCR1 092007Z 14008KT 29/11 A3017 RMK A01 T02940108  RH  032%=      5-min Rain = 0
KCR1 092008Z 16009KT 29/11 A3017 RMK A01 T02920111  RH  032%=      5-min Rain = 0
KCR1 092009Z 17011KT 29/11 A3017 RMK A01 T02930107  RH  031%=      5-min Rain = 0
KCR1 092010Z 16009KT 29/11 A3017 RMK A01 T02930105  RH  031%=      5-min Rain = 0
KCR1 092011Z 17010KT 29/11 A3017 RMK A01 T02930108  RH  032%=      5-min Rain = 0
KCR1 092012Z 19006G11KT 29/11 A3017 RMK A01 T02930105  RH  031%=      5-min Rain = 0
KCR1 092013Z 17004KT 29/11 A3017 RMK A01 T02910105  RH  031%=      5-min Rain = 0
KCR1 092014Z 11008KT 29/11 A3017 RMK A01 T02910114  RH  033%=      5-min Rain = 0
KCR1 092015Z 10008KT 29/11 A3016 RMK A01 T02930110  RH  032%=      5-min Rain = 0
KCR1 092016Z 12006KT 29/11 A3016 RMK A01 T02910111  RH  033%=      5-min Rain = 0
KCR1 092017Z 11005KT 29/11 A3016 RMK A01 T02910114  RH  033%=      5-min Rain = 0
KCR1 092018Z 11004KT 29/11 A3016 RMK A01 T02910107  RH  032%=      5-min Rain = 0
KCR1 092019Z 11004KT 29/11 A3016 RMK A01 T02900114  RH  034%=      5-min Rain = 0
KCR1 092020Z 13007KT 29/11 A3016 RMK A01 T02910112  RH  033%=      5-min Rain = 0
KCR1 092021Z 13007KT 29/11 A3016 RMK A01 T02920113  RH  033%=      5-min Rain = 0
KCR1 092022Z 14007KT 29/11 A3016 RMK A01 T02930114  RH  033%=      5-min Rain = 0
KCR1 092023Z 17009KT 30/11 A3016 RMK A01 T02950114  RH  033%=      5-min Rain = 0
KCR1 092024Z 18008KT 30/11 A3016 RMK A01 T02960114  RH  032%=      5-min Rain = 0
KCR1 092025Z 16009KT 30/11 A3016 RMK A01 T02970114  RH  032%=      5-min Rain = 0
KCR1 092026Z 16008KT 30/11 A3016 RMK A01 T02980110  RH  031%=      5-min Rain = 0
KCR1 092027Z 17007KT 30/11 A3016 RMK A01 T02970108  RH  031%=      5-min Rain = 0
KCR1 092028Z 15008KT 30/11 A3016 RMK A01 T02970109  RH  031%=      5-min Rain = 0
KCR1 092029Z 13012KT 30/11 A3016 RMK A01 T02970109  RH  031%=      5-min Rain = 0
KCR1 092030Z 13013KT 30/11 A3016 RMK A01 T02950109  RH  032%=      5-min Rain = 0
KCR1 092031Z 13011KT 29/11 A3016 RMK A01 T02940109  RH  032%=      5-min Rain = 0
KCR1 092032Z 12008KT 29/11 A3016 RMK A01 T02930110  RH  032%=      5-min Rain = 0
KCR1 092033Z 13007KT 29/11 A3016 RMK A01 T02930112  RH  033%=      5-min Rain = 0
KCR1 092034Z 17007KT 29/11 A3016 RMK A01 T02940112  RH  033%=      5-min Rain = 0
KCR1 092035Z 19005KT 29/11 A3015 RMK A01 T02940112  RH  033%=      5-min Rain = 0
KCR1 092036Z 16006KT 29/11 A3015 RMK A01 T02940112  RH  032%=      5-min Rain = 0
KCR1 092037Z 12008KT 30/12 A3015 RMK A01 T02960119  RH  034%=      5-min Rain = 0
KCR1 092038Z 13007KT 30/12 A3015 RMK A01 T02990116  RH  032%=      5-min Rain = 0
KCR1 092039Z 13006KT 30/11 A3015 RMK A01 T02970114  RH  032%=      5-min Rain = 0
KCR1 092040Z 15006KT 30/11 A3015 RMK A01 T02950113  RH  033%=      5-min Rain = 0
KCR1 092041Z 14010KT 29/12 A3015 RMK A01 T02940116  RH  033%=      5-min Rain = 0
KCR1 092042Z 14012KT 29/12 A3015 RMK A01 T02940116  RH  033%=      5-min Rain = 0
KCR1 092043Z 13010KT 30/12 A3015 RMK A01 T02950115  RH  033%=      5-min Rain = 0
KCR1 092044Z 13008KT 29/11 A3015 RMK A01 T02940113  RH  033%=      5-min Rain = 0
KCR1 092045Z 11008KT 29/12 A3015 RMK A01 T02930118  RH  034%=      5-min Rain = 0
KCR1 092046Z 11011KT 30/12 A3015 RMK A01 T02950117  RH  033%=      5-min Rain = 0
KCR1 092047Z 11010KT 30/12 A3015 RMK A01 T02970117  RH  033%=      5-min Rain = 0
KCR1 092048Z 10009KT 30/11 A3015 RMK A01 T02970114  RH  032%=      5-min Rain = 0
KCR1 092049Z 11008KT 30/11 A3015 RMK A01 T02960113  RH  032%=      5-min Rain = 0
KCR1 092050Z 11005KT 30/11 A3015 RMK A01 T02950113  RH  033%=      5-min Rain = 0
KCR1 092051Z 19006KT 30/11 A3015 RMK A01 T02950114  RH  033%=      5-min Rain = 0
KCR1 092052Z 16008KT 30/11 A3015 RMK A01 T02960108  RH  031%=      5-min Rain = 0
KCR1 092053Z 15007KT 30/11 A3015 RMK A01 T02960107  RH  031%=      5-min Rain = 0
KCR1 092054Z 14007KT 30/11 A3015 RMK A01 T02960110  RH  032%=      5-min Rain = 0
KCR1 092055Z 15006KT 30/11 A3015 RMK A01 T02960106  RH  031%=      5-min Rain = 0
KCR1 092056Z 17007KT 30/11 A3015 RMK A01 T02960106  RH  031%=      5-min Rain = 0
KCR1 092057Z 14010G15KT 30/11 A3015 RMK A01 T02950113  RH  032%=      5-min Rain = 0
KCR1 092058Z 13011KT 30/11 A3015 RMK A01 T02960114  RH  032%=      5-min Rain = 0
KCR1 092059Z 15008KT 30/12 A3015 RMK A01 T02970115  RH  033%=      5-min Rain = 0
KCR1 092100Z 14007KT 30/12 A3015 RMK A01 T02960115  RH  033%=      5-min Rain = 0
KCR1 092101Z 14007KT 30/11 A3015 RMK A01 T02950114  RH  033%=      5-min Rain = 0
KCR1 092102Z 13008KT 30/12 A3015 RMK A01 T02960117  RH  033%=      5-min Rain = 0
KCR1 092103Z 10010KT 30/11 A3015 RMK A01 T02980114  RH  032%=      5-min Rain = 0
KCR1 092104Z 10010KT 30/11 A3015 RMK A01 T02980112  RH  032%=      5-min Rain = 0
KCR1 092105Z 10009KT 30/11 A3015 RMK A01 T02970112  RH  032%=      5-min Rain = 0
KCR1 092106Z 10008KT 30/11 A3015 RMK A01 T02970112  RH  032%=      5-min Rain = 0
KCR1 092107Z 14010KT 30/11 A3015 RMK A01 T02970111  RH  032%=      5-min Rain = 0
KCR1 092108Z 15011KT 30/11 A3015 RMK A01 T02970111  RH  032%=      5-min Rain = 0
KCR1 092109Z 16009KT 30/11 A3015 RMK A01 T02970109  RH  031%=      5-min Rain = 0
KCR1 092110Z 16008KT 30/11 A3015 RMK A01 T02970112  RH  032%=      5-min Rain = 0
KCR1 092111Z 14010KT 30/11 A3015 RMK A01 T02960112  RH  032%=      5-min Rain = 0
KCR1 092112Z 13012KT 30/11 A3015 RMK A01 T02970113  RH  032%=      5-min Rain = 0
KCR1 092113Z 13010KT 30/11 A3015 RMK A01 T02970112  RH  032%=      5-min Rain = 0
KCR1 092114Z 14010KT 30/11 A3015 RMK A01 T02960112  RH  032%=      5-min Rain = 0
KCR1 092115Z 14011KT 30/11 A3015 RMK A01 T02960113  RH  032%=      5-min Rain = 0
KCR1 092116Z 14009KT 30/11 A3015 RMK A01 T02960113  RH  032%=      5-min Rain = 0
KCR1 092117Z 15008KT 30/11 A3015 RMK A01 T02960113  RH  032%=      5-min Rain = 0
KCR1 092118Z 14005KT 30/11 A3015 RMK A01 T02950109  RH  032%=      5-min Rain = 0
KCR1 092119Z 14004KT 29/11 A3015 RMK A01 T02930112  RH  033%=      5-min Rain = 0
KCR1 092120Z 14004KT 29/11 A3014 RMK A01 T02930107  RH  032%=      5-min Rain = 0
KCR1 092121Z 13007KT 29/11 A3014 RMK A01 T02930112  RH  033%=      5-min Rain = 0
KCR1 092122Z 12009KT 29/11 A3014 RMK A01 T02940112  RH  032%=      5-min Rain = 0
KCR1 092123Z 13008KT 30/11 A3014 RMK A01 T02950113  RH  032%=      5-min Rain = 0
KCR1 092124Z 12008KT 30/11 A3014 RMK A01 T02980114  RH  032%=      5-min Rain = 0
KCR1 092125Z 13010KT 30/11 A3014 RMK A01 T02990113  RH  032%=      5-min Rain = 0
KCR1 092126Z 14010KT 30/12 A3014 RMK A01 T02990115  RH  032%=      5-min Rain = 0
KCR1 092127Z 14011KT 30/12 A3014 RMK A01 T02990115  RH  032%=      5-min Rain = 0
KCR1 092128Z 14010KT 30/12 A3014 RMK A01 T03000118  RH  032%=      5-min Rain = 0
KCR1 092129Z 14011KT 30/11 A3014 RMK A01 T03020113  RH  031%=      5-min Rain = 0
KCR1 092130Z 15009KT 30/11 A3014 RMK A01 T02990111  RH  031%=      5-min Rain = 0
KCR1 092131Z 15008KT 30/12 A3014 RMK A01 T02970115  RH  033%=      5-min Rain = 0
KCR1 092132Z 16006KT 30/11 A3014 RMK A01 T02980114  RH  032%=      5-min Rain = 0
KCR1 092133Z 12006KT 30/11 A3014 RMK A01 T02970113  RH  032%=      5-min Rain = 0
KCR1 092134Z 10010KT 30/11 A3014 RMK A01 T02960111  RH  032%=      5-min Rain = 0
KCR1 092135Z 09008KT 30/11 A3014 RMK A01 T02960111  RH  032%=      5-min Rain = 0
KCR1 092136Z 10009KT 30/11 A3014 RMK A01 T02960113  RH  032%=      5-min Rain = 0
KCR1 092137Z 10009KT 30/11 A3014 RMK A01 T02980110  RH  031%=      5-min Rain = 0
KCR1 092138Z 11009KT 30/11 A3014 RMK A01 T02950109  RH  032%=      5-min Rain = 0
KCR1 092139Z 12008KT 29/11 A3014 RMK A01 T02940113  RH  033%=      5-min Rain = 0
KCR1 092140Z 12008KT 30/11 A3014 RMK A01 T02960111  RH  032%=      5-min Rain = 0
KCR1 092141Z 11008KT 30/11 A3013 RMK A01 T02960111  RH  032%=      5-min Rain = 0
KCR1 092142Z 15010KT 30/11 A3013 RMK A01 T02980113  RH  032%=      5-min Rain = 0
KCR1 092143Z 13011KT 30/11 A3013 RMK A01 T02990111  RH  031%=      5-min Rain = 0
KCR1 092144Z 13012KT 30/11 A3014 RMK A01 T03000112  RH  031%=      5-min Rain = 0
KCR1 092145Z 14009KT 30/11 A3014 RMK A01 T03000109  RH  031%=      5-min Rain = 0
KCR1 092146Z 12007KT 30/11 A3013 RMK A01 T02980109  RH  031%=      5-min Rain = 0
KCR1 092147Z 11005KT 30/11 A3013 RMK A01 T02970107  RH  031%=      5-min Rain = 0
KCR1 092148Z 12007KT 30/11 A3013 RMK A01 T02950109  RH  032%=      5-min Rain = 0
KCR1 092149Z 12010G15KT 30/11 A3013 RMK A01 T02970108  RH  031%=      5-min Rain = 0
KCR1 092150Z 13012KT 30/11 A3013 RMK A01 T02990108  RH  031%=      5-min Rain = 0
KCR1 092151Z 14010KT 30/11 A3013 RMK A01 T02990108  RH  031%=      5-min Rain = 0
KCR1 092152Z 13011KT 30/11 A3013 RMK A01 T03000110  RH  031%=      5-min Rain = 0
KCR1 092153Z 12011KT 30/11 A3013 RMK A01 T03020107  RH  030%=      5-min Rain = 0
KCR1 092154Z 12012KT 30/11 A3013 RMK A01 T03010105  RH  030%=      5-min Rain = 0
KCR1 092155Z 12012KT 30/10 A3013 RMK A01 T03000104  RH  030%=      5-min Rain = 0
KCR1 092156Z 12012KT 30/10 A3013 RMK A01 T02990102  RH  030%=      5-min Rain = 0
KCR1 092157Z 12012KT 30/10 A3013 RMK A01 T02970100  RH  029%=      5-min Rain = 0
KCR1 092158Z 13010KT 30/10 A3013 RMK A01 T02960103  RH  030%=      5-min Rain = 0
KCR1 092159Z 13012KT 30/10 A3013 RMK A01 T02960103  RH  030%=      5-min Rain = 0
KCR1 092200Z 14012KT 30/10 A3013 RMK A01 T02970102  RH  030%=      5-min Rain = 0
KCR1 092201Z 13010KT 30/10 A3013 RMK A01 T02980103  RH  030%=      5-min Rain = 0
KCR1 092202Z 14009KT 30/10 A3013 RMK A01 T02980103  RH  030%=      5-min Rain = 0
KCR1 092203Z 15012KT 30/10 A3013 RMK A01 T02970104  RH  030%=      5-min Rain = 0
KCR1 092204Z 14011KT 30/11 A3013 RMK A01 T02980107  RH  031%=      5-min Rain = 0
KCR1 092205Z 13009KT 30/11 A3013 RMK A01 T02980108  RH  031%=      5-min Rain = 0
KCR1 092206Z 14011KT 30/11 A3013 RMK A01 T03000108  RH  031%=      5-min Rain = 0
KCR1 092207Z 13009KT 30/11 A3013 RMK A01 T02990106  RH  030%=      5-min Rain = 0
KCR1 092208Z 13007KT 30/11 A3013 RMK A01 T02970106  RH  031%=      5-min Rain = 0
KCR1 092209Z 13007KT 30/11 A3013 RMK A01 T02970107  RH  031%=      5-min Rain = 0
KCR1 092210Z 13007KT 30/11 A3013 RMK A01 T02970108  RH  031%=      5-min Rain = 0
KCR1 092211Z 14011KT 30/11 A3013 RMK A01 T02970106  RH  031%=      5-min Rain = 0
KCR1 092212Z 13012KT 30/11 A3013 RMK A01 T02970107  RH  031%=      5-min Rain = 0
KCR1 092213Z 14011KT 30/11 A3013 RMK A01 T02980107  RH  031%=      5-min Rain = 0
KCR1 092214Z 13009KT 30/11 A3013 RMK A01 T02960105  RH  030%=      5-min Rain = 0
KCR1 092215Z 11009KT 30/11 A3013 RMK A01 T02950108  RH  031%=      5-min Rain = 0
KCR1 092216Z 11007KT 30/11 A3013 RMK A01 T02960106  RH  031%=      5-min Rain = 0
KCR1 092217Z 11007KT 30/11 A3013 RMK A01 T02950107  RH  031%=      5-min Rain = 0
KCR1 092218Z 14009G14KT 30/11 A3013 RMK A01 T02970111  RH  032%=      5-min Rain = 0
KCR1 092219Z 12012KT 30/11 A3013 RMK A01 T02990106  RH  030%=      5-min Rain = 0
KCR1 092220Z 12010KT 30/11 A3013 RMK A01 T02980105  RH  030%=      5-min Rain = 0
KCR1 092221Z 12008KT 30/11 A3013 RMK A01 T02990109  RH  031%=      5-min Rain = 0
KCR1 092222Z 12010KT 30/11 A3013 RMK A01 T03010107  RH  030%=      5-min Rain = 0
KCR1 092223Z 13007KT 30/11 A3013 RMK A01 T02990106  RH  030%=      5-min Rain = 0
KCR1 092224Z 13008KT 30/11 A3013 RMK A01 T02990110  RH  031%=      5-min Rain = 0
KCR1 092225Z 14010KT 30/11 A3013 RMK A01 T03000112  RH  031%=      5-min Rain = 0
KCR1 092226Z 13009KT 30/11 A3013 RMK A01 T03000110  RH  031%=      5-min Rain = 0
KCR1 092227Z 14009KT 30/11 A3013 RMK A01 T02980110  RH  031%=      5-min Rain = 0
KCR1 092228Z 12011KT 30/11 A3013 RMK A01 T02970109  RH  031%=      5-min Rain = 0
KCR1 092229Z 11009KT 30/11 A3013 RMK A01 T02960111  RH  032%=      5-min Rain = 0
KCR1 092230Z 11013KT 30/11 A3013 RMK A01 T02960113  RH  032%=      5-min Rain = 0
KCR1 092231Z 13011KT 30/11 A3013 RMK A01 T02960112  RH  032%=      5-min Rain = 0
KCR1 092232Z 14010KT 30/11 A3013 RMK A01 T02970112  RH  032%=      5-min Rain = 0
KCR1 092233Z 15009KT 30/11 A3013 RMK A01 T02960111  RH  032%=      5-min Rain = 0
KCR1 092234Z 14007KT 30/11 A3013 RMK A01 T02950113  RH  032%=      5-min Rain = 0
KCR1 092235Z 13010KT 30/12 A3013 RMK A01 T02960115  RH  033%=      5-min Rain = 0
KCR1 092236Z 13011KT 30/11 A3013 RMK A01 T02970113  RH  032%=      5-min Rain = 0
KCR1 092237Z 13007KT 30/11 A3013 RMK A01 T02970113  RH  032%=      5-min Rain = 0
KCR1 092238Z 15006KT 30/11 A3013 RMK A01 T02960112  RH  032%=      5-min Rain = 0
KCR1 092239Z 14004KT 30/11 A3013 RMK A01 T02950113  RH  032%=      5-min Rain = 0
KCR1 092240Z 13002KT 30/11 A3013 RMK A01 T02950109  RH  032%=      5-min Rain = 0
KCR1 092241Z 13004KT 29/11 A3013 RMK A01 T02930111  RH  032%=      5-min Rain = 0
KCR1 092242Z 13006G11KT 29/12 A3013 RMK A01 T02940116  RH  033%=      5-min Rain = 0
KCR1 092243Z 13011KT 30/11 A3013 RMK A01 T02960112  RH  032%=      5-min Rain = 0
KCR1 092244Z 12009KT 30/11 A3013 RMK A01 T02950110  RH  032%=      5-min Rain = 0
KCR1 092245Z 13011KT 30/11 A3013 RMK A01 T02950111  RH  032%=      5-min Rain = 0
KCR1 092246Z 13011KT 30/11 A3013 RMK A01 T02950109  RH  032%=      5-min Rain = 0
KCR1 092247Z 13008KT 30/11 A3013 RMK A01 T02950109  RH  032%=      5-min Rain = 0
KCR1 092248Z 13009KT 30/11 A3013 RMK A01 T02950110  RH  032%=      5-min Rain = 0
KCR1 092249Z 13010KT 30/11 A3013 RMK A01 T02950108  RH  031%=      5-min Rain = 0
KCR1 092250Z 13010KT 30/11 A3013 RMK A01 T02950108  RH  031%=      5-min Rain = 0
KCR1 092251Z 13010KT 30/11 A3013 RMK A01 T02950109  RH  032%=      5-min Rain = 0
KCR1 092252Z 13008KT 30/11 A3013 RMK A01 T02950107  RH  031%=      5-min Rain = 0
KCR1 092253Z 13009KT 30/11 A3013 RMK A01 T02950107  RH  031%=      5-min Rain = 0
KCR1 092254Z 14010KT 30/11 A3013 RMK A01 T02950107  RH  031%=      5-min Rain = 0
KCR1 092255Z 13009KT 30/11 A3013 RMK A01 T02950106  RH  031%=      5-min Rain = 0
KCR1 092256Z 13010KT 30/11 A3013 RMK A01 T02950108  RH  031%=      5-min Rain = 0
KCR1 092257Z 12010KT 30/11 A3013 RMK A01 T02950109  RH  031%=      5-min Rain = 0
KCR1 092258Z 12012KT 30/11 A3012 RMK A01 T02950107  RH  031%=      5-min Rain = 0
KCR1 092259Z 13010KT 30/11 A3012 RMK A01 T02950108  RH  031%=      5-min Rain = 0
KCR1 092300Z 13007KT 30/11 A3012 RMK A01 T02950109  RH  032%=      5-min Rain = 0
KCR1 092301Z 13006KT 29/11 A3012 RMK A01 T02940107  RH  031%=      5-min Rain = 0
KCR1 092302Z 13006KT 29/11 A3012 RMK A01 T02930108  RH  032%=      5-min Rain = 0
KCR1 092303Z 15008KT 29/11 A3012 RMK A01 T02930111  RH  032%=      5-min Rain = 0
KCR1 092304Z 14008KT 29/11 A3012 RMK A01 T02940109  RH  032%=      5-min Rain = 0
KCR1 092305Z 12011KT 29/11 A3012 RMK A01 T02940110  RH  032%=      5-min Rain = 0
KCR1 092306Z 12012KT 29/11 A3013 RMK A01 T02930108  RH  032%=      5-min Rain = 0
KCR1 092307Z 14011KT 29/11 A3013 RMK A01 T02930107  RH  032%=      5-min Rain = 0
KCR1 092308Z 14010KT 29/11 A3013 RMK A01 T02930109  RH  032%=      5-min Rain = 0
KCR1 092309Z 14011KT 29/11 A3013 RMK A01 T02930108  RH  032%=      5-min Rain = 0
KCR1 092310Z 15009KT 29/11 A3013 RMK A01 T02930110  RH  032%=      5-min Rain = 0
KCR1 092311Z 15011KT 29/11 A3013 RMK A01 T02930108  RH  032%=      5-min Rain = 0
KCR1 092312Z 15011KT 29/11 A3013 RMK A01 T02920107  RH  032%=      5-min Rain = 0
KCR1 092313Z 16010KT 29/11 A3013 RMK A01 T02920108  RH  032%=      5-min Rain = 0
KCR1 092314Z 16008KT 29/11 A3013 RMK A01 T02920108  RH  032%=      5-min Rain = 0
KCR1 092315Z 14008KT 29/11 A3013 RMK A01 T02920110  RH  032%=      5-min Rain = 0
KCR1 092316Z 13007KT 29/11 A3013 RMK A01 T02920108  RH  032%=      5-min Rain = 0
KCR1 092317Z 14006KT 29/11 A3013 RMK A01 T02920111  RH  033%=      5-min Rain = 0
KCR1 092318Z 15010KT 29/11 A3013 RMK A01 T02920111  RH  033%=      5-min Rain = 0
KCR1 092319Z 14011KT 29/11 A3013 RMK A01 T02920109  RH  032%=      5-min Rain = 0
KCR1 092320Z 14010KT 29/11 A3013 RMK A01 T02920110  RH  032%=      5-min Rain = 0
KCR1 092321Z 14009KT 29/11 A3013 RMK A01 T02920110  RH  032%=      5-min Rain = 0
KCR1 092322Z 13010KT 29/11 A3013 RMK A01 T02910109  RH  032%=      5-min Rain = 0
KCR1 092323Z 13010KT 29/11 A3013 RMK A01 T02910107  RH  032%=      5-min Rain = 0
KCR1 092324Z 14011KT 29/11 A3012 RMK A01 T02910109  RH  032%=      5-min Rain = 0
KCR1 092325Z 14011KT 29/11 A3013 RMK A01 T02910111  RH  033%=      5-min Rain = 0
KCR1 092326Z 13009KT 29/11 A3012 RMK A01 T02910109  RH  032%=      5-min Rain = 0
KCR1 092327Z 13007KT 29/11 A3013 RMK A01 T02900109  RH  032%=      5-min Rain = 0
KCR1 092328Z 12010KT 29/11 A3013 RMK A01 T02910109  RH  032%=      5-min Rain = 0
KCR1 092329Z 12009KT 29/11 A3013 RMK A01 T02910107  RH  032%=      5-min Rain = 0
KCR1 092330Z 11010KT 29/11 A3013 RMK A01 T02910107  RH  032%=      5-min Rain = 0
KCR1 092331Z 13011KT 29/11 A3012 RMK A01 T02910107  RH  032%=      5-min Rain = 0
KCR1 092332Z 13010KT 29/11 A3013 RMK A01 T02900108  RH  032%=      5-min Rain = 0
KCR1 092333Z 12008KT 29/11 A3013 RMK A01 T02900108  RH  032%=      5-min Rain = 0
KCR1 092334Z 12011KT 29/11 A3013 RMK A01 T02900109  RH  032%=      5-min Rain = 0
KCR1 092335Z 12008KT 29/11 A3013 RMK A01 T02900108  RH  032%=      5-min Rain = 0
KCR1 092336Z 13008KT 29/11 A3012 RMK A01 T02900108  RH  032%=      5-min Rain = 0
KCR1 092337Z 13007KT 29/11 A3012 RMK A01 T02890107  RH  032%=      5-min Rain = 0
KCR1 092338Z 14007KT 29/11 A3012 RMK A01 T02890110  RH  033%=      5-min Rain = 0
KCR1 092339Z 11011KT 29/11 A3012 RMK A01 T02890109  RH  033%=      5-min Rain = 0
KCR1 092340Z 10009KT 29/11 A3012 RMK A01 T02890108  RH  032%=      5-min Rain = 0
KCR1 092341Z 11011KT 29/11 A3012 RMK A01 T02890108  RH  032%=      5-min Rain = 0
KCR1 092342Z 12009KT 29/11 A3012 RMK A01 T02890106  RH  032%=      5-min Rain = 0
KCR1 092343Z 11009G16KT 29/11 A3012 RMK A01 T02880108  RH  033%=      5-min Rain = 0
KCR1 092344Z 13013G18KT 29/11 A3012 RMK A01 T02880107  RH  032%=      5-min Rain = 0
KCR1 092345Z 14011KT 29/11 A3013 RMK A01 T02880106  RH  032%=      5-min Rain = 0
KCR1 092346Z 14009KT 29/10 A3013 RMK A01 T02880104  RH  032%=      5-min Rain = 0
KCR1 092347Z 13010KT 29/11 A3013 RMK A01 T02880105  RH  032%=      5-min Rain = 0
KCR1 092348Z 13009KT 29/11 A3013 RMK A01 T02870105  RH  032%=      5-min Rain = 0
KCR1 092349Z 14010KT 29/11 A3013 RMK A01 T02870105  RH  032%=      5-min Rain = 0
KCR1 092350Z 13010KT 29/10 A3013 RMK A01 T02860104  RH  032%=      5-min Rain = 0
KCR1 092351Z 13010KT 29/10 A3013 RMK A01 T02860104  RH  032%=      5-min Rain = 0
KCR1 092352Z 13010KT 29/10 A3013 RMK A01 T02860103  RH  032%=      5-min Rain = 0
KCR1 092353Z 14009KT 29/10 A3013 RMK A01 T02860104  RH  032%=      5-min Rain = 0
KCR1 092354Z 13008KT 29/11 A3013 RMK A01 T02860106  RH  033%=      5-min Rain = 0
KCR1 092355Z 14009KT 29/11 A3013 RMK A01 T02850105  RH  033%=      5-min Rain = 0
KCR1 092356Z 13007KT 29/11 A3013 RMK A01 T02850106  RH  033%=      5-min Rain = 0
KCR1 092357Z 12010KT 29/11 A3013 RMK A01 T02850108  RH  033%=      5-min Rain = 0
KCR1 092358Z 12012KT 29/11 A3013 RMK A01 T02850107  RH  033%=      5-min Rain = 0
KCR1 092359Z 12012KT 29/11 A3013 RMK A01 T02850107  RH  033%=      5-min Rain = 0
KCR1 100000Z 12011KT 28/11 A3013 RMK A01 T02840108  RH  033%=      5-min Rain = 0
KCR1 100001Z 12010KT 28/11 A3013 RMK A01 T02840108  RH  034%=      5-min Rain = 0
KCR1 100002Z 11011KT 28/11 A3013 RMK A01 T02840110  RH  034%=      5-min Rain = 0
KCR1 100003Z 11010KT 28/11 A3013 RMK A01 T02840111  RH  034%=      5-min Rain = 0
KCR1 100004Z 11010KT 28/11 A3013 RMK A01 T02830111  RH  034%=      5-min Rain = 0
KCR1 100005Z 10010KT 28/11 A3013 RMK A01 T02830112  RH  034%=      5-min Rain = 0
KCR1 100006Z 10009KT 28/11 A3013 RMK A01 T02830111  RH  034%=      5-min Rain = 0
KCR1 100007Z 11007KT 28/11 A3013 RMK A01 T02820112  RH  035%=      5-min Rain = 0
KCR1 100008Z 13008KT 28/11 A3013 RMK A01 T02820112  RH  035%=      5-min Rain = 0
KCR1 100009Z 11010KT 28/11 A3013 RMK A01 T02820113  RH  035%=      5-min Rain = 0
KCR1 100010Z 11010KT 28/11 A3013 RMK A01 T02810112  RH  035%=      5-min Rain = 0
KCR1 100011Z 12009KT 28/11 A3013 RMK A01 T02810112  RH  035%=      5-min Rain = 0
KCR1 100012Z 12010KT 28/11 A3013 RMK A01 T02810112  RH  035%=      5-min Rain = 0
KCR1 100013Z 12011KT 28/11 A3013 RMK A01 T02810112  RH  035%=      5-min Rain = 0
KCR1 100014Z 12011KT 28/11 A3013 RMK A01 T02800111  RH  035%=      5-min Rain = 0
KCR1 100015Z 11012KT 28/11 A3013 RMK A01 T02800111  RH  035%=      5-min Rain = 0
KCR1 100016Z 11010KT 28/11 A3013 RMK A01 T02800111  RH  035%=      5-min Rain = 0
KCR1 100017Z 11009KT 28/11 A3013 RMK A01 T02800112  RH  035%=      5-min Rain = 0
KCR1 100018Z 11010KT 28/11 A3013 RMK A01 T02790112  RH  035%=      5-min Rain = 0
KCR1 100019Z 11008KT 28/11 A3013 RMK A01 T02790112  RH  035%=      5-min Rain = 0
KCR1 100020Z 11007KT 28/11 A3013 RMK A01 T02780113  RH  036%=      5-min Rain = 0
KCR1 100021Z 11008KT 28/11 A3013 RMK A01 T02780113  RH  036%=      5-min Rain = 0
KCR1 100022Z 11010KT 28/11 A3013 RMK A01 T02780112  RH  036%=      5-min Rain = 0
KCR1 100023Z 12010KT 28/11 A3013 RMK A01 T02780111  RH  036%=      5-min Rain = 0
KCR1 100024Z 12009KT 28/11 A3013 RMK A01 T02770112  RH  036%=      5-min Rain = 0
KCR1 100025Z 11009KT 28/11 A3013 RMK A01 T02760112  RH  036%=      5-min Rain = 0
KCR1 100026Z 11008KT 28/11 A3013 RMK A01 T02760112  RH  036%=      5-min Rain = 0
KCR1 100027Z 11008KT 28/11 A3013 RMK A01 T02760113  RH  036%=      5-min Rain = 0
KCR1 100028Z 12009KT 28/11 A3013 RMK A01 T02750112  RH  036%=      5-min Rain = 0
KCR1 100029Z 11008KT 28/11 A3013 RMK A01 T02750112  RH  036%=      5-min Rain = 0
KCR1 100030Z 11008KT 28/11 A3013 RMK A01 T02750112  RH  036%=      5-min Rain = 0
KCR1 100031Z 11008KT 27/11 A3013 RMK A01 T02740112  RH  036%=      5-min Rain = 0
KCR1 100032Z 11008KT 27/11 A3013 RMK A01 T02740112  RH  037%=      5-min Rain = 0
KCR1 100033Z 12008KT 27/11 A3013 RMK A01 T02730112  RH  037%=      5-min Rain = 0
KCR1 100034Z 11008KT 27/11 A3013 RMK A01 T02720111  RH  037%=      5-min Rain = 0
KCR1 100035Z 11009KT 27/11 A3013 RMK A01 T02720111  RH  037%=      5-min Rain = 0
KCR1 100036Z 11008KT 27/11 A3013 RMK A01 T02720112  RH  037%=      5-min Rain = 0
KCR1 100037Z 11009KT 27/11 A3013 RMK A01 T02710111  RH  037%=      5-min Rain = 0
KCR1 100038Z 11008KT 27/11 A3013 RMK A01 T02710110  RH  037%=      5-min Rain = 0
KCR1 100039Z 11009KT 27/11 A3013 RMK A01 T02710110  RH  037%=      5-min Rain = 0
KCR1 100040Z 11008KT 27/11 A3013 RMK A01 T02710111  RH  037%=      5-min Rain = 0
KCR1 100041Z 11007KT 27/11 A3013 RMK A01 T02700111  RH  037%=      5-min Rain = 0
KCR1 100042Z 11009KT 27/11 A3013 RMK A01 T02680111  RH  037%=      5-min Rain = 0
KCR1 100043Z 11009KT 27/11 A3013 RMK A01 T02680110  RH  037%=      5-min Rain = 0
KCR1 100044Z 11008KT 27/11 A3013 RMK A01 T02680109  RH  037%=      5-min Rain = 0
KCR1 100045Z 11009KT 27/11 A3013 RMK A01 T02680110  RH  037%=      5-min Rain = 0
KCR1 100046Z 11009KT 27/11 A3013 RMK A01 T02670109  RH  037%=      5-min Rain = 0
KCR1 100047Z 11009KT 27/11 A3013 RMK A01 T02670109  RH  037%=      5-min Rain = 0
KCR1 100048Z 11008KT 27/11 A3012 RMK A01 T02670109  RH  037%=      5-min Rain = 0
KCR1 100049Z 11008KT 27/11 A3013 RMK A01 T02660109  RH  037%=      5-min Rain = 0
KCR1 100050Z 11007KT 27/11 A3013 RMK A01 T02660110  RH  038%=      5-min Rain = 0
KCR1 100051Z 12008KT 27/11 A3013 RMK A01 T02650109  RH  038%=      5-min Rain = 0
KCR1 100052Z 11008KT 26/11 A3013 RMK A01 T02640109  RH  038%=      5-min Rain = 0
KCR1 100053Z 11008KT 26/11 A3013 RMK A01 T02640109  RH  038%=      5-min Rain = 0
KCR1 100054Z 12009KT 26/11 A3013 RMK A01 T02630108  RH  038%=      5-min Rain = 0
KCR1 100055Z 12008KT 26/11 A3013 RMK A01 T02640108  RH  038%=      5-min Rain = 0
KCR1 100056Z 11008KT 27/11 A3013 RMK A01 T02650109  RH  038%=      5-min Rain = 0
KCR1 100057Z 11008KT 26/11 A3013 RMK A01 T02640109  RH  038%=      5-min Rain = 0
KCR1 100058Z 11008KT 26/11 A3013 RMK A01 T02630109  RH  038%=      5-min Rain = 0
KCR1 100059Z 11008KT 26/11 A3013 RMK A01 T02630109  RH  038%=      5-min Rain = 0
KCR1 100100Z 11007KT 26/11 A3013 RMK A01 T02620109  RH  038%=      5-min Rain = 0
KCR1 100101Z 11007KT 26/11 A3013 RMK A01 T02610109  RH  039%=      5-min Rain = 0
KCR1 100102Z 11007KT 26/11 A3013 RMK A01 T02600110  RH  039%=      5-min Rain = 0
KCR1 100103Z 11007KT 26/11 A3013 RMK A01 T02590110  RH  039%=      5-min Rain = 0
KCR1 100104Z 11007KT 26/11 A3013 RMK A01 T02580109  RH  039%=      5-min Rain = 0
KCR1 100105Z 11007KT 26/11 A3013 RMK A01 T02580110  RH  039%=      5-min Rain = 0
KCR1 100106Z 11007KT 26/11 A3013 RMK A01 T02580110  RH  039%=      5-min Rain = 0
KCR1 100107Z 11007KT 26/11 A3013 RMK A01 T02570109  RH  040%=      5-min Rain = 0
KCR1 100108Z 11007KT 26/11 A3013 RMK A01 T02560109  RH  040%=      5-min Rain = 0
KCR1 100109Z 11007KT 26/11 A3013 RMK A01 T02550109  RH  040%=      5-min Rain = 0
KCR1 100110Z 12007KT 26/11 A3013 RMK A01 T02550109  RH  040%=      5-min Rain = 0
KCR1 100111Z 11007KT 26/11 A3013 RMK A01 T02550109  RH  040%=      5-min Rain = 0
KCR1 100112Z 11007KT 25/11 A3013 RMK A01 T02540109  RH  040%=      5-min Rain = 0
KCR1 100113Z 11007KT 25/11 A3013 RMK A01 T02530109  RH  040%=      5-min Rain = 0
KCR1 100114Z 11007KT 25/11 A3013 RMK A01 T02530109  RH  040%=      5-min Rain = 0
KCR1 100115Z 11007KT 25/11 A3013 RMK A01 T02530109  RH  040%=      5-min Rain = 0
KCR1 100116Z 11007KT 25/11 A3013 RMK A01 T02520109  RH  041%=      5-min Rain = 0
KCR1 100117Z 11007KT 25/11 A3013 RMK A01 T02520109  RH  041%=      5-min Rain = 0
KCR1 100118Z 11008KT 25/11 A3013 RMK A01 T02510109  RH  041%=      5-min Rain = 0
KCR1 100119Z 12007KT 25/11 A3013 RMK A01 T02510109  RH  041%=      5-min Rain = 0
KCR1 100120Z 11008KT 25/11 A3013 RMK A01 T02510109  RH  041%=      5-min Rain = 0
KCR1 100121Z 12007KT 25/11 A3013 RMK A01 T02510109  RH  041%=      5-min Rain = 0
KCR1 100122Z 12008KT 25/11 A3013 RMK A01 T02510109  RH  041%=      5-min Rain = 0
KCR1 100123Z 11007KT 25/11 A3013 RMK A01 T02510109  RH  041%=      5-min Rain = 0
KCR1 100124Z 12007KT 25/11 A3013 RMK A01 T02510109  RH  041%=      5-min Rain = 0
KCR1 100125Z 11007KT 25/11 A3013 RMK A01 T02510109  RH  041%=      5-min Rain = 0
KCR1 100126Z 11007KT 25/11 A3013 RMK A01 T02500109  RH  041%=      5-min Rain = 0
KCR1 100127Z 11007KT 25/11 A3013 RMK A01 T02490109  RH  041%=      5-min Rain = 0
KCR1 100128Z 11006KT 25/11 A3013 RMK A01 T02490110  RH  042%=      5-min Rain = 0
KCR1 100129Z 11006KT 25/11 A3013 RMK A01 T02480109  RH  042%=      5-min Rain = 0
KCR1 100130Z 11007KT 25/11 A3013 RMK A01 T02480110  RH  042%=      5-min Rain = 0
KCR1 100131Z 11007KT 25/11 A3013 RMK A01 T02480110  RH  042%=      5-min Rain = 0
KCR1 100132Z 11006KT 25/11 A3013 RMK A01 T02470110  RH  042%=      5-min Rain = 0
KCR1 100133Z 10005KT 25/11 A3013 RMK A01 T02470109  RH  042%=      5-min Rain = 0
KCR1 100134Z 10005KT 25/11 A3013 RMK A01 T02470109  RH  042%=      5-min Rain = 0
KCR1 100135Z 10005KT 25/11 A3013 RMK A01 T02450109  RH  042%=      5-min Rain = 0
KCR1 100136Z 10006KT 24/11 A3013 RMK A01 T02440109  RH  042%=      5-min Rain = 0
KCR1 100137Z 11006KT 24/11 A3013 RMK A01 T02430109  RH  043%=      5-min Rain = 0
KCR1 100138Z 11005KT 24/11 A3013 RMK A01 T02430109  RH  043%=      5-min Rain = 0
KCR1 100139Z 11006KT 24/11 A3014 RMK A01 T02430109  RH  043%=      5-min Rain = 0
KCR1 100140Z 11006KT 24/11 A3014 RMK A01 T02420109  RH  043%=      5-min Rain = 0
KCR1 100141Z 11006KT 24/11 A3014 RMK A01 T02420109  RH  043%=      5-min Rain = 0
KCR1 100142Z 11006KT 24/11 A3014 RMK A01 T02410109  RH  043%=      5-min Rain = 0
KCR1 100143Z 11006KT 24/11 A3014 RMK A01 T02410109  RH  043%=      5-min Rain = 0
KCR1 100144Z 11007KT 24/11 A3014 RMK A01 T02410109  RH  043%=      5-min Rain = 0
KCR1 100145Z 11006KT 24/11 A3014 RMK A01 T02410109  RH  043%=      5-min Rain = 0
KCR1 100146Z 11006KT 24/11 A3014 RMK A01 T02410110  RH  044%=      5-min Rain = 0
KCR1 100147Z 11006KT 24/11 A3014 RMK A01 T02400110  RH  044%=      5-min Rain = 0
KCR1 100148Z 11006KT 24/11 A3014 RMK A01 T02390109  RH  044%=      5-min Rain = 0
KCR1 100149Z 11006KT 24/11 A3014 RMK A01 T02390110  RH  044%=      5-min Rain = 0
KCR1 100150Z 11006KT 24/11 A3014 RMK A01 T02380110  RH  044%=      5-min Rain = 0
KCR1 100151Z 11006KT 24/11 A3014 RMK A01 T02370110  RH  044%=      5-min Rain = 0
KCR1 100152Z 11006KT 24/11 A3014 RMK A01 T02370110  RH  045%=      5-min Rain = 0
KCR1 100153Z 11006KT 24/11 A3014 RMK A01 T02370110  RH  045%=      5-min Rain = 0
KCR1 100154Z 11006KT 24/11 A3014 RMK A01 T02360110  RH  045%=      5-min Rain = 0
KCR1 100155Z 11006KT 24/11 A3014 RMK A01 T02350111  RH  045%=      5-min Rain = 0
KCR1 100156Z 11005KT 24/11 A3014 RMK A01 T02350110  RH  046%=      5-min Rain = 0
KCR1 100157Z 11006KT 24/11 A3014 RMK A01 T02350111  RH  046%=      5-min Rain = 0
KCR1 100158Z 11005KT 24/11 A3014 RMK A01 T02350111  RH  046%=      5-min Rain = 0
KCR1 100159Z 11006KT 23/11 A3014 RMK A01 T02340111  RH  046%=      5-min Rain = 0
KCR1 100200Z 11006KT 23/11 A3014 RMK A01 T02340111  RH  046%=      5-min Rain = 0
KCR1 100201Z 11005KT 23/11 A3014 RMK A01 T02330111  RH  046%=      5-min Rain = 0
KCR1 100202Z 11005KT 23/11 A3014 RMK A01 T02330111  RH  046%=      5-min Rain = 0
KCR1 100203Z 11005KT 23/11 A3015 RMK A01 T02320111  RH  046%=      5-min Rain = 0
KCR1 100204Z 11004KT 23/11 A3015 RMK A01 T02320111  RH  047%=      5-min Rain = 0
KCR1 100205Z 11004KT 23/11 A3015 RMK A01 T02310111  RH  047%=      5-min Rain = 0
KCR1 100206Z 11004KT 23/11 A3015 RMK A01 T02300111  RH  047%=      5-min Rain = 0
KCR1 100207Z 10004KT 23/11 A3015 RMK A01 T02300111  RH  047%=      5-min Rain = 0
KCR1 100208Z 10004KT 23/11 A3015 RMK A01 T02290111  RH  047%=      5-min Rain = 0
KCR1 100209Z 10005KT 23/11 A3015 RMK A01 T02280111  RH  047%=      5-min Rain = 0
KCR1 100210Z 09005KT 23/11 A3015 RMK A01 T02280110  RH  047%=      5-min Rain = 0
KCR1 100211Z 08005KT 23/11 A3015 RMK A01 T02270110  RH  048%=      5-min Rain = 0
KCR1 100212Z 08006KT 23/11 A3015 RMK A01 T02260110  RH  048%=      5-min Rain = 0
KCR1 100213Z 09006KT 22/11 A3015 RMK A01 T02240109  RH  048%=      5-min Rain = 0
KCR1 100214Z 10006KT 22/11 A3015 RMK A01 T02240109  RH  048%=      5-min Rain = 0
KCR1 100215Z 10006KT 22/11 A3015 RMK A01 T02230109  RH  048%=      5-min Rain = 0
KCR1 100216Z 10006KT 22/11 A3015 RMK A01 T02230110  RH  049%=      5-min Rain = 0
KCR1 100217Z 10006KT 22/11 A3015 RMK A01 T02230110  RH  049%=      5-min Rain = 0
KCR1 100218Z 11006KT 22/11 A3015 RMK A01 T02240110  RH  048%=      5-min Rain = 0
KCR1 100219Z 10006KT 23/11 A3015 RMK A01 T02250109  RH  048%=      5-min Rain = 0
KCR1 100220Z 10006KT 23/11 A3015 RMK A01 T02270110  RH  048%=      5-min Rain = 0
KCR1 100221Z 10006KT 23/11 A3015 RMK A01 T02270109  RH  047%=      5-min Rain = 0
KCR1 100222Z 10006KT 23/11 A3015 RMK A01 T02270109  RH  047%=      5-min Rain = 0
KCR1 100223Z 09006KT 23/11 A3015 RMK A01 T02270110  RH  047%=      5-min Rain = 0
KCR1 100224Z 10005KT 23/11 A3016 RMK A01 T02260109  RH  047%=      5-min Rain = 0
KCR1 100225Z 10005KT 23/11 A3016 RMK A01 T02260110  RH  048%=      5-min Rain = 0
KCR1 100226Z 10005KT 23/11 A3016 RMK A01 T02250110  RH  048%=      5-min Rain = 0
KCR1 100227Z 10005KT 22/11 A3016 RMK A01 T02230110  RH  049%=      5-min Rain = 0
KCR1 100228Z 10005KT 22/11 A3016 RMK A01 T02230110  RH  049%=      5-min Rain = 0
KCR1 100229Z 09006KT 22/11 A3016 RMK A01 T02230110  RH  049%=      5-min Rain = 0
KCR1 100230Z 09006KT 22/11 A3016 RMK A01 T02220110  RH  049%=      5-min Rain = 0
KCR1 100231Z 10005KT 22/11 A3016 RMK A01 T02220110  RH  049%=      5-min Rain = 0
KCR1 100232Z 10006KT 22/11 A3016 RMK A01 T02220110  RH  049%=      5-min Rain = 0
KCR1 100233Z 10006KT 22/11 A3016 RMK A01 T02220109  RH  049%=      5-min Rain = 0
KCR1 100234Z 10006KT 22/11 A3016 RMK A01 T02220110  RH  049%=      5-min Rain = 0
KCR1 100235Z 10006KT 22/11 A3016 RMK A01 T02220110  RH  049%=      5-min Rain = 0
KCR1 100236Z 10006KT 22/11 A3016 RMK A01 T02220110  RH  049%=      5-min Rain = 0
KCR1 100237Z 10006KT 22/11 A3016 RMK A01 T02220110  RH  049%=      5-min Rain = 0
KCR1 100238Z 10006KT 22/11 A3016 RMK A01 T02220109  RH  049%=      5-min Rain = 0
KCR1 100239Z 10006KT 22/11 A3016 RMK A01 T02220110  RH  049%=      5-min Rain = 0
KCR1 100240Z 10006KT 22/11 A3016 RMK A01 T02220110  RH  049%=      5-min Rain = 0
KCR1 100241Z 10006KT 22/11 A3016 RMK A01 T02220111  RH  049%=      5-min Rain = 0
KCR1 100242Z 10006KT 22/11 A3016 RMK A01 T02220112  RH  050%=      5-min Rain = 0
KCR1 100243Z 11006KT 22/11 A3016 RMK A01 T02220112  RH  050%=      5-min Rain = 0
KCR1 100244Z 10006KT 22/11 A3016 RMK A01 T02210112  RH  050%=      5-min Rain = 0
KCR1 100245Z 10007KT 22/11 A3016 RMK A01 T02210112  RH  050%=      5-min Rain = 0
KCR1 100246Z 10006KT 22/11 A3016 RMK A01 T02210113  RH  050%=      5-min Rain = 0
KCR1 100247Z 11007KT 22/11 A3016 RMK A01 T02210113  RH  050%=      5-min Rain = 0
KCR1 100248Z 10006KT 22/11 A3016 RMK A01 T02220113  RH  050%=      5-min Rain = 0
KCR1 100249Z 10007KT 22/11 A3016 RMK A01 T02220114  RH  050%=      5-min Rain = 0
KCR1 100250Z 10006KT 22/11 A3016 RMK A01 T02220114  RH  050%=      5-min Rain = 0
KCR1 100251Z 11007KT 22/11 A3016 RMK A01 T02220114  RH  050%=      5-min Rain = 0
KCR1 100252Z 10007KT 22/11 A3016 RMK A01 T02220114  RH  050%=      5-min Rain = 0
KCR1 100253Z 10007KT 22/12 A3016 RMK A01 T02220115  RH  050%=      5-min Rain = 0
KCR1 100254Z 10007KT 22/12 A3016 RMK A01 T02220115  RH  051%=      5-min Rain = 0
KCR1 100255Z 10007KT 22/12 A3016 RMK A01 T02220115  RH  051%=      5-min Rain = 0
KCR1 100256Z 11007KT 22/12 A3016 RMK A01 T02220115  RH  051%=      5-min Rain = 0
KCR1 100257Z 11007KT 22/12 A3017 RMK A01 T02220115  RH  051%=      5-min Rain = 0
KCR1 100258Z 11007KT 22/12 A3017 RMK A01 T02220116  RH  051%=      5-min Rain = 0
KCR1 100259Z 11007KT 22/12 A3017 RMK A01 T02220116  RH  051%=      5-min Rain = 0
KCR1 100300Z 11007KT 22/12 A3017 RMK A01 T02210116  RH  051%=      5-min Rain = 0
KCR1 100301Z 11007KT 22/12 A3017 RMK A01 T02210116  RH  051%=      5-min Rain = 0
KCR1 100302Z 11007KT 22/12 A3017 RMK A01 T02210116  RH  052%=      5-min Rain = 0
KCR1 100303Z 11007KT 22/12 A3017 RMK A01 T02210117  RH  052%=      5-min Rain = 0
KCR1 100304Z 11007KT 22/12 A3017 RMK A01 T02210117  RH  052%=      5-min Rain = 0
KCR1 100305Z 11007KT 22/12 A3017 RMK A01 T02210117  RH  052%=      5-min Rain = 0
KCR1 100306Z 11008KT 22/12 A3017 RMK A01 T02210117  RH  052%=      5-min Rain = 0
KCR1 100307Z 11008KT 22/12 A3017 RMK A01 T02210116  RH  051%=      5-min Rain = 0
KCR1 100308Z 11008KT 22/12 A3017 RMK A01 T02220117  RH  051%=      5-min Rain = 0
KCR1 100309Z 11007KT 22/12 A3017 RMK A01 T02220117  RH  051%=      5-min Rain = 0
KCR1 100310Z 11008KT 22/12 A3017 RMK A01 T02220117  RH  051%=      5-min Rain = 0
KCR1 100311Z 11008KT 22/12 A3017 RMK A01 T02220117  RH  051%=      5-min Rain = 0
KCR1 100312Z 11009KT 22/12 A3017 RMK A01 T02220117  RH  051%=      5-min Rain = 0
KCR1 100313Z 11009KT 22/12 A3017 RMK A01 T02220116  RH  051%=      5-min Rain = 0
KCR1 100314Z 11008KT 22/12 A3017 RMK A01 T02230116  RH  051%=      5-min Rain = 0
KCR1 100315Z 11007KT 22/12 A3017 RMK A01 T02230117  RH  051%=      5-min Rain = 0
KCR1 100316Z 11008KT 22/12 A3017 RMK A01 T02230117  RH  051%=      5-min Rain = 0
KCR1 100317Z 11008KT 22/12 A3017 RMK A01 T02230116  RH  051%=      5-min Rain = 0
KCR1 100318Z 12009KT 22/12 A3017 RMK A01 T02230116  RH  051%=      5-min Rain = 0
KCR1 100319Z 11009KT 22/12 A3017 RMK A01 T02230116  RH  051%=      5-min Rain = 0
KCR1 100320Z 11009KT 22/12 A3017 RMK A01 T02240116  RH  051%=      5-min Rain = 0
KCR1 100321Z 12009KT 22/12 A3017 RMK A01 T02230116  RH  051%=      5-min Rain = 0
KCR1 100322Z 11008KT 22/12 A3017 RMK A01 T02230116  RH  051%=      5-min Rain = 0
KCR1 100323Z 12008KT 22/12 A3017 RMK A01 T02240116  RH  051%=      5-min Rain = 0
KCR1 100324Z 12009KT 22/12 A3017 RMK A01 T02230116  RH  051%=      5-min Rain = 0
KCR1 100325Z 12009KT 22/12 A3017 RMK A01 T02230116  RH  051%=      5-min Rain = 0
KCR1 100326Z 12009KT 22/12 A3017 RMK A01 T02230116  RH  051%=      5-min Rain = 0
KCR1 100327Z 12009KT 22/12 A3017 RMK A01 T02230116  RH  051%=      5-min Rain = 0
KCR1 100328Z 12008G13KT 22/12 A3017 RMK A01 T02230116  RH  051%=      5-min Rain = 0
KCR1 100329Z 12009KT 22/12 A3017 RMK A01 T02230117  RH  051%=      5-min Rain = 0
KCR1 100330Z 12009KT 22/12 A3017 RMK A01 T02230117  RH  051%=      5-min Rain = 0
KCR1 100331Z 11008KT 22/12 A3017 RMK A01 T02230117  RH  051%=      5-min Rain = 0
KCR1 100332Z 12009KT 22/12 A3017 RMK A01 T02220117  RH  051%=      5-min Rain = 0
KCR1 100333Z 12008KT 22/12 A3017 RMK A01 T02220117  RH  051%=      5-min Rain = 0
KCR1 100334Z 12008KT 22/12 A3017 RMK A01 T02210116  RH  051%=      5-min Rain = 0
KCR1 100335Z 12008KT 22/12 A3017 RMK A01 T02210117  RH  052%=      5-min Rain = 0
KCR1 100336Z 12008KT 22/12 A3017 RMK A01 T02200117  RH  052%=      5-min Rain = 0
KCR1 100337Z 12008KT 22/12 A3017 RMK A01 T02200117  RH  052%=      5-min Rain = 0
KCR1 100338Z 12008KT 22/12 A3017 RMK A01 T02200117  RH  052%=      5-min Rain = 0
KCR1 100339Z 11008KT 22/12 A3017 RMK A01 T02200117  RH  052%=      5-min Rain = 0
KCR1 100340Z 12007KT 22/12 A3017 RMK A01 T02200117  RH  052%=      5-min Rain = 0
KCR1 100341Z 12007KT 22/12 A3017 RMK A01 T02190117  RH  052%=      5-min Rain = 0
KCR1 100342Z 12008KT 22/12 A3017 RMK A01 T02180116  RH  052%=      5-min Rain = 0
KCR1 100343Z 12008KT 22/12 A3017 RMK A01 T02180116  RH  052%=      5-min Rain = 0
KCR1 100344Z 12008KT 22/12 A3017 RMK A01 T02180116  RH  052%=      5-min Rain = 0
KCR1 100345Z 12008KT 22/12 A3017 RMK A01 T02180117  RH  052%=      5-min Rain = 0
KCR1 100346Z 12007KT 22/12 A3017 RMK A01 T02180117  RH  052%=      5-min Rain = 0
KCR1 100347Z 12007KT 22/12 A3017 RMK A01 T02170117  RH  053%=      5-min Rain = 0
KCR1 100348Z 12007KT 22/12 A3017 RMK A01 T02160116  RH  053%=      5-min Rain = 0
KCR1 100349Z 12007KT 22/12 A3017 RMK A01 T02150116  RH  053%=      5-min Rain = 0
KCR1 100350Z 12007KT 22/12 A3017 RMK A01 T02150116  RH  053%=      5-min Rain = 0
KCR1 100351Z 12007KT 22/12 A3017 RMK A01 T02150116  RH  053%=      5-min Rain = 0
KCR1 100352Z 12007KT 22/12 A3017 RMK A01 T02150116  RH  053%=      5-min Rain = 0
KCR1 100353Z 12006KT 22/12 A3017 RMK A01 T02150117  RH  054%=      5-min Rain = 0
KCR1 100354Z 13007KT 21/12 A3017 RMK A01 T02130116  RH  054%=      5-min Rain = 0
KCR1 100355Z 13007KT 21/12 A3017 RMK A01 T02130116  RH  054%=      5-min Rain = 0
KCR1 100356Z 13007KT 21/12 A3017 RMK A01 T02120116  RH  054%=      5-min Rain = 0
KCR1 100357Z 13006KT 21/12 A3017 RMK A01 T02110117  RH  055%=      5-min Rain = 0
KCR1 100358Z 13007KT 21/12 A3017 RMK A01 T02110117  RH  055%=      5-min Rain = 0
KCR1 100359Z 13007KT 21/12 A3017 RMK A01 T02110117  RH  055%=      5-min Rain = 0
KCR1 100400Z 12006KT 21/12 A3017 RMK A01 T02100117  RH  055%=      5-min Rain = 0
KCR1 100401Z 12006KT 21/12 A3017 RMK A01 T02100117  RH  055%=      5-min Rain = 0
KCR1 100402Z 12007KT 21/12 A3017 RMK A01 T02090117  RH  056%=      5-min Rain = 0
KCR1 100403Z 12007KT 21/12 A3018 RMK A01 T02080117  RH  056%=      5-min Rain = 0
KCR1 100404Z 12007KT 21/12 A3017 RMK A01 T02090117  RH  056%=      5-min Rain = 0
KCR1 100405Z 13007KT 21/12 A3017 RMK A01 T02080117  RH  056%=      5-min Rain = 0
KCR1 100406Z 12007KT 21/12 A3017 RMK A01 T02090117  RH  056%=      5-min Rain = 0
KCR1 100407Z 13007KT 21/12 A3018 RMK A01 T02090117  RH  056%=      5-min Rain = 0
KCR1 100408Z 13007KT 21/12 A3017 RMK A01 T02080117  RH  056%=      5-min Rain = 0
KCR1 100409Z 13006KT 21/12 A3017 RMK A01 T02080117  RH  056%=      5-min Rain = 0
KCR1 100410Z 13007KT 21/12 A3018 RMK A01 T02070117  RH  056%=      5-min Rain = 0
KCR1 100411Z 13007KT 21/12 A3018 RMK A01 T02070117  RH  056%=      5-min Rain = 0
KCR1 100412Z 12007KT 21/12 A3017 RMK A01 T02070118  RH  057%=      5-min Rain = 0
KCR1 100413Z 12007KT 21/12 A3017 RMK A01 T02070117  RH  057%=      5-min Rain = 0
KCR1 100414Z 12007KT 21/12 A3018 RMK A01 T02060118  RH  057%=      5-min Rain = 0
KCR1 100415Z 12007KT 21/12 A3018 RMK A01 T02060118  RH  057%=      5-min Rain = 0
KCR1 100416Z 12007KT 21/12 A3018 RMK A01 T02060118  RH  057%=      5-min Rain = 0
KCR1 100417Z 13007KT 21/12 A3018 RMK A01 T02060118  RH  057%=      5-min Rain = 0
KCR1 100418Z 13007KT 21/12 A3018 RMK A01 T02060118  RH  057%=      5-min Rain = 0
KCR1 100419Z 12007KT 21/12 A3018 RMK A01 T02060118  RH  057%=      5-min Rain = 0
KCR1 100420Z 12007KT 21/12 A3018 RMK A01 T02050118  RH  057%=      5-min Rain = 0
KCR1 100421Z 12007KT 21/12 A3018 RMK A01 T02050119  RH  058%=      5-min Rain = 0
KCR1 100422Z 12007KT 21/12 A3018 RMK A01 T02050119  RH  058%=      5-min Rain = 0
KCR1 100423Z 12007KT 21/12 A3018 RMK A01 T02050119  RH  058%=      5-min Rain = 0
KCR1 100424Z 12007KT 20/12 A3018 RMK A01 T02040119  RH  058%=      5-min Rain = 0
KCR1 100425Z 12006KT 20/12 A3018 RMK A01 T02030119  RH  058%=      5-min Rain = 0
KCR1 100426Z 12006KT 20/12 A3018 RMK A01 T02030119  RH  059%=      5-min Rain = 0
KCR1 100427Z 13006KT 20/12 A3018 RMK A01 T02020119  RH  059%=      5-min Rain = 0
KCR1 100428Z 13006KT 20/12 A3018 RMK A01 T02010119  RH  059%=      5-min Rain = 0
KCR1 100429Z 13006KT 20/12 A3018 RMK A01 T02010119  RH  059%=      5-min Rain = 0
KCR1 100430Z 12006KT 20/12 A3018 RMK A01 T02010119  RH  059%=      5-min Rain = 0
KCR1 100431Z 13006KT 20/12 A3018 RMK A01 T02010119  RH  059%=      5-min Rain = 0
KCR1 100432Z 12006KT 20/12 A3018 RMK A01 T02010119  RH  059%=      5-min Rain = 0
KCR1 100433Z 13006KT 20/12 A3018 RMK A01 T02010119  RH  059%=      5-min Rain = 0
KCR1 100434Z 12006KT 20/12 A3018 RMK A01 T02010119  RH  060%=      5-min Rain = 0
KCR1 100435Z 12006KT 20/12 A3018 RMK A01 T02000120  RH  060%=      5-min Rain = 0
KCR1 100436Z 12006KT 20/12 A3018 RMK A01 T02000120  RH  060%=      5-min Rain = 0
KCR1 100437Z 12006KT 20/12 A3018 RMK A01 T02000120  RH  060%=      5-min Rain = 0
KCR1 100438Z 12006KT 20/12 A3018 RMK A01 T01990120  RH  060%=      5-min Rain = 0
KCR1 100439Z 12006KT 20/12 A3018 RMK A01 T01990120  RH  060%=      5-min Rain = 0
KCR1 100440Z 12006KT 20/12 A3018 RMK A01 T01990120  RH  060%=      5-min Rain = 0
KCR1 100441Z 12006KT 20/12 A3019 RMK A01 T01990120  RH  060%=      5-min Rain = 0
KCR1 100442Z 12006KT 20/12 A3019 RMK A01 T01980120  RH  060%=      5-min Rain = 0
KCR1 100443Z 12006KT 20/12 A3019 RMK A01 T01980120  RH  061%=      5-min Rain = 0
KCR1 100444Z 12006KT 20/12 A3018 RMK A01 T01980120  RH  061%=      5-min Rain = 0
KCR1 100445Z 12006KT 20/12 A3018 RMK A01 T01980120  RH  061%=      5-min Rain = 0
KCR1 100446Z 12006KT 20/12 A3018 RMK A01 T01970120  RH  061%=      5-min Rain = 0
KCR1 100447Z 12006KT 20/12 A3018 RMK A01 T01970120  RH  061%=      5-min Rain = 0
KCR1 100448Z 12006KT 20/12 A3018 RMK A01 T01970120  RH  061%=      5-min Rain = 0
KCR1 100449Z 11006KT 20/12 A3019 RMK A01 T01970120  RH  061%=      5-min Rain = 0
KCR1 100450Z 11007KT 20/12 A3019 RMK A01 T01960120  RH  061%=      5-min Rain = 0
KCR1 100451Z 11006KT 20/12 A3019 RMK A01 T01970120  RH  061%=      5-min Rain = 0
KCR1 100452Z 11006KT 20/12 A3019 RMK A01 T01970120  RH  061%=      5-min Rain = 0
KCR1 100453Z 10006KT 20/12 A3019 RMK A01 T01980120  RH  061%=      5-min Rain = 0
KCR1 100454Z 10006KT 20/12 A3019 RMK A01 T01980121  RH  061%=      5-min Rain = 0
KCR1 100455Z 11006KT 20/12 A3019 RMK A01 T01980121  RH  061%=      5-min Rain = 0
KCR1 100456Z 11005KT 20/12 A3019 RMK A01 T01990121  RH  061%=      5-min Rain = 0
KCR1 100457Z 11006KT 20/12 A3019 RMK A01 T01990122  RH  061%=      5-min Rain = 0
KCR1 100458Z 11006KT 20/12 A3019 RMK A01 T01990122  RH  061%=      5-min Rain = 0
KCR1 100459Z 11005KT 20/12 A3019 RMK A01 T01980122  RH  061%=      5-min Rain = 0

Page generated in 0.0849 seconds.